Wetterdaten: Samstag, 24.08.2013
Datum Zeit Temp. Aussen +5cm Feuchte Auss Luftdruck Regen Sonnenschein Regendauer UV Solar Windben
24.08.2013 00:00 20,0 C 17,2 C 68 % 1014,3 hPa 0,0 l/m 0 min 0 min 0,0 UV-I 0 W/m 0,0 km/h (0 Bft)
24.08.2013 00:02 20,0 C 17,2 C 68 % 1014,4 hPa 0,0 l/m 0 min 0 min 0,0 UV-I 0 W/m 0,0 km/h (0 Bft)
24.08.2013 00:06 19,9 C 17,2 C 68 % 1014,4 hPa 0,0 l/m 0 min 0 min 0,0 UV-I 0 W/m 2,6 km/h (1 Bft)
24.08.2013 00:08 19,9 C 17,2 C 68 % 1014,3 hPa 0,0 l/m 0 min 0 min 0,0 UV-I 0 W/m 2,6 km/h (1 Bft)
24.08.2013 00:10 19,9 C 17,2 C 68 % 1014,4 hPa 0,0 l/m 0 min 0 min 0,0 UV-I 0 W/m 2,6 km/h (1 Bft)
24.08.2013 00:12 19,8 C 17,2 C 68 % 1014,4 hPa 0,0 l/m 0 min 0 min 0,0 UV-I 0 W/m 0,0 km/h (0 Bft)
24.08.2013 00:14 19,8 C 17,2 C 68 % 1014,4 hPa 0,0 l/m 0 min 0 min 0,0 UV-I 0 W/m 2,6 km/h (1 Bft)
24.08.2013 00:16 19,8 C 17,2 C 68 % 1014,4 hPa 0,0 l/m 0 min 0 min 0,0 UV-I 0 W/m 2,6 km/h (1 Bft)
24.08.2013 00:18 19,8 C 17,2 C 69 % 1014,3 hPa 0,0 l/m 0 min 0 min 0,0 UV-I 0 W/m 0,0 km/h (0 Bft)
24.08.2013 00:20 19,7 C 17,2 C 69 % 1014,3 hPa 0,0 l/m 0 min 0 min 0,0 UV-I 0 W/m 10,3 km/h (2 Bft)
24.08.2013 00:22 19,7 C 17,2 C 69 % 1014,4 hPa 0,0 l/m 0 min 0 min 0,0 UV-I 0 W/m 5,1 km/h (1 Bft)
24.08.2013 00:24 19,7 C 17,2 C 69 % 1014,3 hPa 0,0 l/m 0 min 0 min 0,0 UV-I 0 W/m 2,6 km/h (1 Bft)
24.08.2013 00:26 19,7 C 17,2 C 69 % 1014,3 hPa 0,0 l/m 0 min 0 min 0,0 UV-I 0 W/m 7,7 km/h (2 Bft)
24.08.2013 00:28 19,6 C 17,2 C 69 % 1014,3 hPa 0,0 l/m 0 min 0 min 0,0 UV-I 0 W/m 2,6 km/h (1 Bft)
24.08.2013 00:30 19,6 C 17,2 C 69 % 1014,3 hPa 0,0 l/m 0 min 0 min 0,0 UV-I 0 W/m 5,1 km/h (1 Bft)
24.08.2013 00:32 19,6 C 17,2 C 69 % 1014,3 hPa 0,0 l/m 0 min 0 min 0,0 UV-I 0 W/m 10,3 km/h (2 Bft)
24.08.2013 00:34 19,6 C 17,2 C 69 % 1014,3 hPa 0,0 l/m 0 min 0 min 0,0 UV-I 0 W/m 0,0 km/h (0 Bft)
24.08.2013 00:36 19,5 C 17,2 C 69 % 1014,3 hPa 0,0 l/m 0 min 0 min 0,0 UV-I 0 W/m 10,3 km/h (2 Bft)
24.08.2013 00:38 19,5 C 17,2 C 69 % 1014,3 hPa 0,0 l/m 0 min 0 min 0,0 UV-I 0 W/m 2,6 km/h (1 Bft)
24.08.2013 00:40 19,5 C 17,2 C 69 % 1014,2 hPa 0,0 l/m 0 min 0 min 0,0 UV-I 0 W/m 5,1 km/h (1 Bft)
24.08.2013 00:42 19,4 C 17,2 C 68 % 1014,2 hPa 0,0 l/m 0 min 0 min 0,0 UV-I 0 W/m 12,9 km/h (3 Bft)
24.08.2013 00:44 19,4 C 17,2 C 68 % 1014,2 hPa 0,0 l/m 0 min 0 min 0,0 UV-I 0 W/m 12,9 km/h (3 Bft)
24.08.2013 00:46 19,4 C 17,2 C 68 % 1014,2 hPa 0,0 l/m 0 min 0 min 0,0 UV-I 0 W/m 12,9 km/h (3 Bft)
24.08.2013 00:48 19,4 C 17,2 C 68 % 1014,2 hPa 0,0 l/m 0 min 0 min 0,0 UV-I 0 W/m 7,7 km/h (2 Bft)
24.08.2013 00:50 19,4 C 17,2 C 68 % 1014,2 hPa 0,0 l/m 0 min 0 min 0,0 UV-I 0 W/m 20,6 km/h (4 Bft)
24.08.2013 00:52 19,4 C 17,2 C 68 % 1014,2 hPa 0,0 l/m 0 min 0 min 0,0 UV-I 0 W/m 10,3 km/h (2 Bft)
24.08.2013 00:54 19,4 C 17,2 C 68 % 1014,2 hPa 0,0 l/m 0 min 0 min 0,0 UV-I 0 W/m 10,3 km/h (2 Bft)
24.08.2013 00:56 19,3 C 17,2 C 68 % 1014,2 hPa 0,0 l/m 0 min 0 min 0,0 UV-I 0 W/m 10,3 km/h (2 Bft)
24.08.2013 00:58 19,3 C 17,2 C 68 % 1014,2 hPa 0,0 l/m 0 min 0 min 0,0 UV-I 0 W/m 7,7 km/h (2 Bft)
24.08.2013 01:00 19,3 C 17,2 C 68 % 1014,2 hPa 0,0 l/m 0 min 0 min 0,0 UV-I 0 W/m 18,0 km/h (3 Bft)
24.08.2013 01:02 19,3 C 17,2 C 68 % 1014,2 hPa 0,0 l/m 0 min 0 min 0,0 UV-I 0 W/m 7,7 km/h (2 Bft)
24.08.2013 01:06 19,3 C 17,2 C 68 % 1014,2 hPa 0,0 l/m 0 min 0 min 0,0 UV-I 0 W/m 12,9 km/h (3 Bft)
24.08.2013 01:08 19,3 C 17,2 C 68 % 1014,1 hPa 0,0 l/m 0 min 0 min 0,0 UV-I 0 W/m 7,7 km/h (2 Bft)
24.08.2013 01:10 19,3 C 17,2 C 68 % 1014,1 hPa 0,0 l/m 0 min 0 min 0,0 UV-I 0 W/m 5,1 km/h (1 Bft)
24.08.2013 01:12 19,3 C 17,2 C 68 % 1014,2 hPa 0,0 l/m 0 min 0 min 0,0 UV-I 0 W/m 12,9 km/h (3 Bft)
24.08.2013 01:14 19,3 C 17,2 C 67 % 1014,3 hPa 0,0 l/m 0 min 0 min 0,0 UV-I 0 W/m 10,3 km/h (2 Bft)
24.08.2013 01:16 19,3 C 17,2 C 67 % 1014,2 hPa 0,0 l/m 0 min 0 min 0,0 UV-I 0 W/m 10,3 km/h (2 Bft)
24.08.2013 01:18 19,3 C 17,2 C 67 % 1014,2 hPa 0,0 l/m 0 min 0 min 0,0 UV-I 0 W/m 15,4 km/h (3 Bft)
24.08.2013 01:20 19,3 C 17,2 C 68 % 1014,2 hPa 0,0 l/m 0 min 0 min 0,0 UV-I 0 W/m 7,7 km/h (2 Bft)
24.08.2013 01:22 19,3 C 17,2 C 68 % 1014,2 hPa 0,0 l/m 0 min 0 min 0,0 UV-I 0 W/m 2,6 km/h (1 Bft)
24.08.2013 01:24 19,2 C 17,2 C 68 % 1014,2 hPa 0,0 l/m 0 min 0 min 0,0 UV-I 0 W/m 12,9 km/h (3 Bft)
24.08.2013 01:26 19,2 C 17,2 C 67 % 1014,3 hPa 0,0 l/m 0 min 0 min 0,0 UV-I 0 W/m 12,9 km/h (3 Bft)
24.08.2013 01:28 19,2 C 17,2 C 68 % 1014,3 hPa 0,0 l/m 0 min 0 min 0,0 UV-I 0 W/m 2,6 km/h (1 Bft)
24.08.2013 01:30 19,2 C 17,2 C 68 % 1014,3 hPa 0,0 l/m 0 min 0 min 0,0 UV-I 0 W/m 10,3 km/h (2 Bft)
24.08.2013 01:32 19,2 C 17,2 C 68 % 1014,2 hPa 0,0 l/m 0 min 0 min 0,0 UV-I 0 W/m 10,3 km/h (2 Bft)
24.08.2013 01:34 19,2 C 17,2 C 68 % 1014,2 hPa 0,0 l/m 0 min 0 min 0,0 UV-I 0 W/m 12,9 km/h (3 Bft)
24.08.2013 01:36 19,2 C 17,2 C 68 % 1014,2 hPa 0,0 l/m 0 min 0 min 0,0 UV-I 0 W/m 12,9 km/h (3 Bft)
24.08.2013 01:38 19,2 C 17,2 C 68 % 1014,1 hPa 0,0 l/m 0 min 0 min 0,0 UV-I 0 W/m 2,6 km/h (1 Bft)
24.08.2013 01:40 19,2 C 17,2 C 68 % 1014,1 hPa 0,0 l/m 0 min 0 min 0,0 UV-I 0 W/m 10,3 km/h (2 Bft)
24.08.2013 01:42 19,1 C 17,2 C 68 % 1014,0 hPa 0,0 l/m 0 min 0 min 0,0 UV-I 0 W/m 23,2 km/h (4 Bft)
24.08.2013 01:44 19,1 C 17,2 C 68 % 1014,0 hPa 0,0 l/m 0 min 0 min 0,0 UV-I 0 W/m 12,9 km/h (3 Bft)
24.08.2013 01:46 19,1 C 17,2 C 68 % 1013,9 hPa 0,0 l/m 0 min 0 min 0,0 UV-I 0 W/m 5,1 km/h (1 Bft)
24.08.2013 01:48 19,1 C 17,2 C 68 % 1014,0 hPa 0,0 l/m 0 min 0 min 0,0 UV-I 0 W/m 10,3 km/h (2 Bft)
24.08.2013 01:50 19,1 C 17,2 C 68 % 1014,0 hPa 0,0 l/m 0 min 0 min 0,0 UV-I 0 W/m 12,9 km/h (3 Bft)
24.08.2013 01:52 19,1 C 17,2 C 68 % 1014,0 hPa 0,0 l/m 0 min 0 min 0,0 UV-I 0 W/m 2,6 km/h (1 Bft)
24.08.2013 01:54 19,1 C 17,2 C 68 % 1014,0 hPa 0,0 l/m 0 min 0 min 0,0 UV-I 0 W/m 10,3 km/h (2 Bft)
24.08.2013 01:56 19,1 C 17,2 C 68 % 1014,0 hPa 0,0 l/m 0 min 0 min 0,0 UV-I 0 W/m 5,1 km/h (1 Bft)
24.08.2013 01:58 19,1 C 17,2 C 68 % 1014,0 hPa 0,0 l/m 0 min 0 min 0,0 UV-I 0 W/m 10,3 km/h (2 Bft)
24.08.2013 02:00 19,1 C 17,2 C 68 % 1014,0 hPa 0,0 l/m 0 min 0 min 0,0 UV-I 0 W/m 7,7 km/h (2 Bft)
24.08.2013 02:02 19,0 C 16,7 C 68 % 1013,9 hPa 0,0 l/m 0 min 0 min 0,0 UV-I 0 W/m 10,3 km/h (2 Bft)
24.08.2013 02:06 18,9 C 16,7 C 69 % 1013,9 hPa 0,0 l/m 0 min 0 min 0,0 UV-I 0 W/m 2,6 km/h (1 Bft)
24.08.2013 02:08 18,8 C 16,7 C 69 % 1013,9 hPa 0,0 l/m 0 min 0 min 0,0 UV-I 0 W/m 12,9 km/h (3 Bft)
24.08.2013 02:10 18,7 C 16,7 C 69 % 1013,9 hPa 0,0 l/m 0 min 0 min 0,0 UV-I 0 W/m 7,7 km/h (2 Bft)
24.08.2013 02:12 18,7 C 16,7 C 69 % 1013,9 hPa 0,0 l/m 0 min 0 min 0,0 UV-I 0 W/m 15,4 km/h (3 Bft)
24.08.2013 02:14 18,6 C 16,7 C 70 % 1013,9 hPa 0,0 l/m 0 min 0 min 0,0 UV-I 0 W/m 5,1 km/h (1 Bft)
24.08.2013 02:16 18,6 C 16,7 C 70 % 1013,9 hPa 0,0 l/m 0 min 0 min 0,0 UV-I 0 W/m 7,7 km/h (2 Bft)
24.08.2013 02:18 18,5 C 16,7 C 70 % 1013,9 hPa 0,0 l/m 0 min 0 min 0,0 UV-I 0 W/m 10,3 km/h (2 Bft)
24.08.2013 02:20 18,4 C 16,7 C 70 % 1013,8 hPa 0,0 l/m 0 min 0 min 0,0 UV-I 0 W/m 7,7 km/h (2 Bft)
24.08.2013 02:22 18,4 C 16,7 C 70 % 1013,8 hPa 0,0 l/m 0 min 0 min 0,0 UV-I 0 W/m 5,1 km/h (1 Bft)
24.08.2013 02:24 18,4 C 16,7 C 70 % 1013,8 hPa 0,0 l/m 0 min 0 min 0,0 UV-I 0 W/m 12,9 km/h (3 Bft)
24.08.2013 02:26 18,4 C 16,7 C 71 % 1013,7 hPa 0,0 l/m 0 min 0 min 0,0 UV-I 0 W/m 10,3 km/h (2 Bft)
24.08.2013 02:28 18,3 C 16,7 C 71 % 1013,7 hPa 0,0 l/m 0 min 0 min 0,0 UV-I 0 W/m 5,1 km/h (1 Bft)
24.08.2013 02:30 18,3 C 16,7 C 71 % 1013,7 hPa 0,0 l/m 0 min 0 min 0,0 UV-I 0 W/m 5,1 km/h (1 Bft)
24.08.2013 02:32 18,2 C 16,1 C 71 % 1013,7 hPa 0,0 l/m 0 min 0 min 0,0 UV-I 0 W/m 2,6 km/h (1 Bft)
24.08.2013 02:34 18,2 C 16,1 C 71 % 1013,7 hPa 0,0 l/m 0 min 0 min 0,0 UV-I 0 W/m 7,7 km/h (2 Bft)
24.08.2013 02:36 18,2 C 16,1 C 72 % 1013,6 hPa 0,0 l/m 0 min 0 min 0,0 UV-I 0 W/m 2,6 km/h (1 Bft)
24.08.2013 02:38 18,1 C 16,1 C 72 % 1013,6 hPa 0,0 l/m 0 min 0 min 0,0 UV-I 0 W/m 0,0 km/h (0 Bft)
24.08.2013 02:40 18,1 C 16,1 C 72 % 1013,6 hPa 0,0 l/m 0 min 0 min 0,0 UV-I 0 W/m 7,7 km/h (2 Bft)
24.08.2013 02:42 18,1 C 16,1 C 72 % 1013,6 hPa 0,0 l/m 0 min 0 min 0,0 UV-I 0 W/m 7,7 km/h (2 Bft)
24.08.2013 02:44 18,1 C 16,1 C 71 % 1013,6 hPa 0,0 l/m 0 min 0 min 0,0 UV-I 0 W/m 7,7 km/h (2 Bft)
24.08.2013 02:46 18,1 C 16,1 C 72 % 1013,5 hPa 0,0 l/m 0 min 0 min 0,0 UV-I 0 W/m 5,1 km/h (1 Bft)
24.08.2013 02:48 18,0 C 16,1 C 72 % 1013,5 hPa 0,0 l/m 0 min 0 min 0,0 UV-I 0 W/m 2,6 km/h (1 Bft)
24.08.2013 02:50 18,0 C 16,1 C 72 % 1013,5 hPa 0,0 l/m 0 min 0 min 0,0 UV-I 0 W/m 2,6 km/h (1 Bft)
24.08.2013 02:52 17,9 C 16,1 C 72 % 1013,5 hPa 0,0 l/m 0 min 0 min 0,0 UV-I 0 W/m 10,3 km/h (2 Bft)
24.08.2013 02:54 17,9 C 16,1 C 72 % 1013,5 hPa 0,0 l/m 0 min 0 min 0,0 UV-I 0 W/m 0,0 km/h (0 Bft)
24.08.2013 02:56 17,9 C 16,1 C 72 % 1013,4 hPa 0,0 l/m 0 min 0 min 0,0 UV-I 0 W/m 2,6 km/h (1 Bft)
24.08.2013 02:58 17,9 C 16,1 C 72 % 1013,4 hPa 0,0 l/m 0 min 0 min 0,0 UV-I 0 W/m 0,0 km/h (0 Bft)
24.08.2013 03:00 17,8 C 16,1 C 72 % 1013,4 hPa 0,0 l/m 0 min 0 min 0,0 UV-I 0 W/m 7,7 km/h (2 Bft)
24.08.2013 03:02 17,8 C 16,1 C 72 % 1013,3 hPa 0,0 l/m 0 min 0 min 0,0 UV-I 0 W/m 0,0 km/h (0 Bft)
24.08.2013 03:06 17,8 C 16,1 C 72 % 1013,3 hPa 0,0 l/m 0 min 0 min 0,0 UV-I 0 W/m 2,6 km/h (1 Bft)
24.08.2013 03:08 17,7 C 16,1 C 72 % 1013,2 hPa 0,0 l/m 0 min 0 min 0,0 UV-I 0 W/m 5,1 km/h (1 Bft)
24.08.2013 03:10 17,7 C 16,1 C 73 % 1013,2 hPa 0,0 l/m 0 min 0 min 0,0 UV-I 0 W/m 10,3 km/h (2 Bft)
24.08.2013 03:12 17,7 C 16,1 C 73 % 1013,3 hPa 0,0 l/m 0 min 0 min 0,0 UV-I 0 W/m 2,6 km/h (1 Bft)
24.08.2013 03:14 17,6 C 16,1 C 73 % 1013,2 hPa 0,0 l/m 0 min 0 min 0,0 UV-I 0 W/m 0,0 km/h (0 Bft)
24.08.2013 03:16 17,6 C 15,6 C 73 % 1013,2 hPa 0,0 l/m 0 min 0 min 0,0 UV-I 0 W/m 2,6 km/h (1 Bft)
24.08.2013 03:18 17,6 C 15,6 C 73 % 1013,3 hPa 0,0 l/m 0 min 0 min 0,0 UV-I 0 W/m 2,6 km/h (1 Bft)
24.08.2013 03:20 17,6 C 15,6 C 73 % 1013,3 hPa 0,0 l/m 0 min 0 min 0,0 UV-I 0 W/m 0,0 km/h (0 Bft)
24.08.2013 03:22 17,5 C 15,6 C 73 % 1013,2 hPa 0,0 l/m 0 min 0 min 0,0 UV-I 0 W/m 0,0 km/h (0 Bft)
24.08.2013 03:24 17,4 C 15,6 C 74 % 1013,3 hPa 0,0 l/m 0 min 0 min 0,0 UV-I 0 W/m 2,6 km/h (1 Bft)
24.08.2013 03:26 17,4 C 15,6 C 74 % 1013,2 hPa 0,0 l/m 0 min 0 min 0,0 UV-I 0 W/m 0,0 km/h (0 Bft)
24.08.2013 03:28 17,4 C 15,6 C 74 % 1013,2 hPa 0,0 l/m 0 min 0 min 0,0 UV-I 0 W/m 0,0 km/h (0 Bft)
24.08.2013 03:30 17,3 C 15,6 C 74 % 1013,1 hPa 0,0 l/m 0 min 0 min 0,0 UV-I 0 W/m 0,0 km/h (0 Bft)
24.08.2013 03:32 17,3 C 15,6 C 74 % 1013,2 hPa 0,0 l/m 0 min 0 min 0,0 UV-I 0 W/m 0,0 km/h (0 Bft)
24.08.2013 03:34 17,3 C 15,6 C 74 % 1013,2 hPa 0,0 l/m 0 min 0 min 0,0 UV-I 0 W/m 0,0 km/h (0 Bft)
24.08.2013 03:36 17,3 C 15,6 C 75 % 1013,2 hPa 0,0 l/m 0 min 0 min 0,0 UV-I 0 W/m 2,6 km/h (1 Bft)
24.08.2013 03:38 17,2 C 15,6 C 75 % 1013,2 hPa 0,0 l/m 0 min 0 min 0,0 UV-I 0 W/m 2,6 km/h (1 Bft)
24.08.2013 03:40 17,2 C 15,6 C 75 % 1013,1 hPa 0,0 l/m 0 min 0 min 0,0 UV-I 0 W/m 0,0 km/h (0 Bft)
24.08.2013 03:42 17,2 C 15,6 C 75 % 1013,1 hPa 0,0 l/m 0 min 0 min 0,0 UV-I 0 W/m 2,6 km/h (1 Bft)
24.08.2013 03:44 17,2 C 15,6 C 75 % 1013,1 hPa 0,0 l/m 0 min 0 min 0,0 UV-I 0 W/m 2,6 km/h (1 Bft)
24.08.2013 03:46 17,1 C 15,0 C 76 % 1013,1 hPa 0,0 l/m 0 min 0 min 0,0 UV-I 0 W/m 2,6 km/h (1 Bft)
24.08.2013 03:48 17,1 C 15,0 C 76 % 1013,1 hPa 0,0 l/m 0 min 0 min 0,0 UV-I 0 W/m 0,0 km/h (0 Bft)
24.08.2013 03:50 17,1 C 15,0 C 76 % 1013,0 hPa 0,0 l/m 0 min 0 min 0,0 UV-I 0 W/m 2,6 km/h (1 Bft)
24.08.2013 03:52 17,1 C 15,0 C 76 % 1013,0 hPa 0,0 l/m 0 min 0 min 0,0 UV-I 0 W/m 2,6 km/h (1 Bft)
24.08.2013 03:54 17,1 C 15,0 C 76 % 1013,0 hPa 0,0 l/m 0 min 0 min 0,0 UV-I 0 W/m 2,6 km/h (1 Bft)
24.08.2013 03:56 17,1 C 15,0 C 76 % 1013,0 hPa 0,0 l/m 0 min 0 min 0,0 UV-I 0 W/m 2,6 km/h (1 Bft)
24.08.2013 03:58 17,0 C 15,0 C 76 % 1013,1 hPa 0,0 l/m 0 min 0 min 0,0 UV-I 0 W/m 0,0 km/h (0 Bft)
24.08.2013 04:00 17,0 C 15,0 C 76 % 1013,1 hPa 0,0 l/m 0 min 0 min 0,0 UV-I 0 W/m 2,6 km/h (1 Bft)
24.08.2013 04:02 16,9 C 15,0 C 76 % 1013,1 hPa 0,0 l/m 0 min 0 min 0,0 UV-I 0 W/m 0,0 km/h (0 Bft)
24.08.2013 04:06 16,8 C 15,0 C 77 % 1013,1 hPa 0,0 l/m 0 min 0 min 0,0 UV-I 0 W/m 0,0 km/h (0 Bft)
24.08.2013 04:08 16,8 C 15,0 C 77 % 1013,1 hPa 0,0 l/m 0 min 0 min 0,0 UV-I 0 W/m 0,0 km/h (0 Bft)
24.08.2013 04:10 16,7 C 15,0 C 77 % 1013,1 hPa 0,0 l/m 0 min 0 min 0,0 UV-I 0 W/m 0,0 km/h (0 Bft)
24.08.2013 04:12 16,6 C 15,0 C 77 % 1013,0 hPa 0,0 l/m 0 min 0 min 0,0 UV-I 0 W/m 0,0 km/h (0 Bft)
24.08.2013 04:14 16,6 C 15,0 C 78 % 1013,0 hPa 0,0 l/m 0 min 0 min 0,0 UV-I 0 W/m 0,0 km/h (0 Bft)
24.08.2013 04:16 16,6 C 15,0 C 78 % 1012,9 hPa 0,0 l/m 0 min 0 min 0,0 UV-I 0 W/m 0,0 km/h (0 Bft)
24.08.2013 04:18 16,5 C 15,0 C 78 % 1012,9 hPa 0,0 l/m 0 min 0 min 0,0 UV-I 0 W/m 2,6 km/h (1 Bft)
24.08.2013 04:20 16,5 C 15,0 C 78 % 1012,9 hPa 0,0 l/m 0 min 0 min 0,0 UV-I 0 W/m 0,0 km/h (0 Bft)
24.08.2013 04:22 16,4 C 15,0 C 78 % 1012,9 hPa 0,0 l/m 0 min 0 min 0,0 UV-I 0 W/m 0,0 km/h (0 Bft)
24.08.2013 04:24 16,4 C 15,0 C 79 % 1012,9 hPa 0,0 l/m 0 min 0 min 0,0 UV-I 0 W/m 0,0 km/h (0 Bft)
24.08.2013 04:26 16,4 C 14,4 C 79 % 1012,9 hPa 0,0 l/m 0 min 0 min 0,0 UV-I 0 W/m 0,0 km/h (0 Bft)
24.08.2013 04:28 16,3 C 14,4 C 79 % 1012,9 hPa 0,0 l/m 0 min 0 min 0,0 UV-I 0 W/m 0,0 km/h (0 Bft)
24.08.2013 04:30 16,3 C 14,4 C 79 % 1012,9 hPa 0,0 l/m 0 min 0 min 0,0 UV-I 0 W/m 0,0 km/h (0 Bft)
24.08.2013 04:32 16,2 C 14,4 C 79 % 1013,0 hPa 0,0 l/m 0 min 0 min 0,0 UV-I 0 W/m 0,0 km/h (0 Bft)
24.08.2013 04:34 16,2 C 14,4 C 79 % 1012,9 hPa 0,0 l/m 0 min 0 min 0,0 UV-I 0 W/m 0,0 km/h (0 Bft)
24.08.2013 04:36 16,1 C 14,4 C 79 % 1012,9 hPa 0,0 l/m 0 min 0 min 0,0 UV-I 0 W/m 0,0 km/h (0 Bft)
24.08.2013 04:38 16,1 C 14,4 C 80 % 1012,8 hPa 0,0 l/m 0 min 0 min 0,0 UV-I 0 W/m 2,6 km/h (1 Bft)
24.08.2013 04:40 16,1 C 14,4 C 80 % 1012,8 hPa 0,0 l/m 0 min 0 min 0,0 UV-I 0 W/m 0,0 km/h (0 Bft)
24.08.2013 04:42 16,0 C 14,4 C 80 % 1012,8 hPa 0,0 l/m 0 min 0 min 0,0 UV-I 0 W/m 2,6 km/h (1 Bft)
24.08.2013 04:44 16,0 C 14,4 C 80 % 1012,8 hPa 0,0 l/m 0 min 0 min 0,0 UV-I 0 W/m 2,6 km/h (1 Bft)
24.08.2013 04:46 15,9 C 14,4 C 80 % 1012,8 hPa 0,0 l/m 0 min 0 min 0,0 UV-I 0 W/m 0,0 km/h (0 Bft)
24.08.2013 04:48 15,9 C 14,4 C 80 % 1012,8 hPa 0,0 l/m 0 min 0 min 0,0 UV-I 0 W/m 2,6 km/h (1 Bft)
24.08.2013 04:50 15,9 C 14,4 C 80 % 1012,7 hPa 0,0 l/m 0 min 0 min 0,0 UV-I 0 W/m 0,0 km/h (0 Bft)
24.08.2013 04:52 15,9 C 14,4 C 80 % 1012,7 hPa 0,0 l/m 0 min 0 min 0,0 UV-I 0 W/m 0,0 km/h (0 Bft)
24.08.2013 04:54 15,9 C 14,4 C 81 % 1012,7 hPa 0,0 l/m 0 min 0 min 0,0 UV-I 0 W/m 0,0 km/h (0 Bft)
24.08.2013 04:56 16,0 C 14,4 C 81 % 1012,6 hPa 0,0 l/m 0 min 0 min 0,0 UV-I 0 W/m 0,0 km/h (0 Bft)
24.08.2013 04:58 16,0 C 14,4 C 81 % 1012,6 hPa 0,0 l/m 0 min 0 min 0,0 UV-I 0 W/m 5,1 km/h (1 Bft)
24.08.2013 05:00 16,0 C 14,4 C 81 % 1012,6 hPa 0,0 l/m 0 min 0 min 0,0 UV-I 0 W/m 2,6 km/h (1 Bft)
24.08.2013 05:02 16,1 C 14,4 C 81 % 1012,6 hPa 0,0 l/m 0 min 0 min 0,0 UV-I 0 W/m 0,0 km/h (0 Bft)
24.08.2013 05:06 16,1 C 14,4 C 81 % 1012,6 hPa 0,0 l/m 0 min 0 min 0,0 UV-I 0 W/m 0,0 km/h (0 Bft)
24.08.2013 05:08 16,1 C 14,4 C 81 % 1012,5 hPa 0,0 l/m 0 min 0 min 0,0 UV-I 0 W/m 2,6 km/h (1 Bft)
24.08.2013 05:10 16,1 C 14,4 C 81 % 1012,4 hPa 0,0 l/m 0 min 0 min 0,0 UV-I 0 W/m 0,0 km/h (0 Bft)
24.08.2013 05:12 16,1 C 14,4 C 81 % 1012,5 hPa 0,0 l/m 0 min 0 min 0,0 UV-I 0 W/m 2,6 km/h (1 Bft)
24.08.2013 05:14 16,1 C 14,4 C 81 % 1012,4 hPa 0,0 l/m 0 min 0 min 0,0 UV-I 0 W/m 2,6 km/h (1 Bft)
24.08.2013 05:16 16,1 C 14,4 C 81 % 1012,5 hPa 0,0 l/m 0 min 0 min 0,0 UV-I 0 W/m 2,6 km/h (1 Bft)
24.08.2013 05:18 16,1 C 14,4 C 81 % 1012,4 hPa 0,0 l/m 0 min 0 min 0,0 UV-I 0 W/m 0,0 km/h (0 Bft)
24.08.2013 05:20 16,1 C 14,4 C 81 % 1012,4 hPa 0,0 l/m 0 min 0 min 0,0 UV-I 0 W/m 2,6 km/h (1 Bft)
24.08.2013 05:22 16,1 C 14,4 C 81 % 1012,4 hPa 0,0 l/m 0 min 0 min 0,0 UV-I 0 W/m 2,6 km/h (1 Bft)
24.08.2013 05:24 16,1 C 14,4 C 81 % 1012,4 hPa 0,0 l/m 0 min 0 min 0,0 UV-I 0 W/m 5,1 km/h (1 Bft)
24.08.2013 05:26 16,1 C 14,4 C 81 % 1012,3 hPa 0,0 l/m 0 min 0 min 0,0 UV-I 0 W/m 7,7 km/h (2 Bft)
24.08.2013 05:28 16,1 C 15,0 C 81 % 1012,3 hPa 0,0 l/m 0 min 0 min 0,0 UV-I 0 W/m 0,0 km/h (0 Bft)
24.08.2013 05:30 16,2 C 15,0 C 81 % 1012,3 hPa 0,0 l/m 0 min 0 min 0,0 UV-I 0 W/m 7,7 km/h (2 Bft)
24.08.2013 05:32 16,2 C 15,0 C 81 % 1012,3 hPa 0,0 l/m 0 min 0 min 0,0 UV-I 0 W/m 10,3 km/h (2 Bft)
24.08.2013 05:34 16,2 C 15,0 C 81 % 1012,2 hPa 0,0 l/m 0 min 0 min 0,0 UV-I 0 W/m 2,6 km/h (1 Bft)
24.08.2013 05:36 16,3 C 15,0 C 81 % 1012,2 hPa 0,0 l/m 0 min 0 min 0,0 UV-I 0 W/m 2,6 km/h (1 Bft)
24.08.2013 05:38 16,3 C 15,0 C 81 % 1012,2 hPa 0,0 l/m 0 min 0 min 0,0 UV-I 0 W/m 10,3 km/h (2 Bft)
24.08.2013 05:40 16,3 C 15,0 C 81 % 1012,2 hPa 0,0 l/m 0 min 0 min 0,0 UV-I 0 W/m 5,1 km/h (1 Bft)
24.08.2013 05:42 16,4 C 15,0 C 81 % 1012,2 hPa 0,0 l/m 0 min 0 min 0,0 UV-I 0 W/m 12,9 km/h (3 Bft)
24.08.2013 05:44 16,4 C 15,0 C 81 % 1012,2 hPa 0,0 l/m 0 min 0 min 0,0 UV-I 0 W/m 12,9 km/h (3 Bft)
24.08.2013 05:46 16,4 C 15,0 C 81 % 1012,2 hPa 0,0 l/m 0 min 0 min 0,0 UV-I 0 W/m 7,7 km/h (2 Bft)
24.08.2013 05:48 16,4 C 15,0 C 80 % 1012,2 hPa 0,0 l/m 0 min 0 min 0,0 UV-I 0 W/m 5,1 km/h (1 Bft)
24.08.2013 05:50 16,4 C 15,0 C 80 % 1012,2 hPa 0,0 l/m 0 min 0 min 0,0 UV-I 0 W/m 5,1 km/h (1 Bft)
24.08.2013 05:52 16,4 C 15,0 C 80 % 1012,2 hPa 0,0 l/m 0 min 0 min 0,0 UV-I 0 W/m 2,6 km/h (1 Bft)
24.08.2013 05:54 16,4 C 15,0 C 80 % 1012,3 hPa 0,0 l/m 0 min 0 min 0,0 UV-I 0 W/m 0,0 km/h (0 Bft)
24.08.2013 05:56 16,4 C 15,0 C 80 % 1012,2 hPa 0,0 l/m 0 min 0 min 0,0 UV-I 0 W/m 2,6 km/h (1 Bft)
24.08.2013 05:58 16,3 C 15,0 C 81 % 1012,2 hPa 0,0 l/m 0 min 0 min 0,0 UV-I 0 W/m 2,6 km/h (1 Bft)
24.08.2013 06:00 16,3 C 15,0 C 81 % 1012,2 hPa 0,0 l/m 0 min 0 min 0,0 UV-I 0 W/m 5,1 km/h (1 Bft)
24.08.2013 06:02 16,2 C 15,0 C 81 % 1012,1 hPa 0,0 l/m 0 min 0 min 0,0 UV-I 0 W/m 2,6 km/h (1 Bft)
24.08.2013 06:06 16,2 C 14,4 C 81 % 1012,2 hPa 0,0 l/m 0 min 0 min 0,0 UV-I 0 W/m 10,3 km/h (2 Bft)
24.08.2013 06:08 16,2 C 14,4 C 81 % 1012,2 hPa 0,0 l/m 0 min 0 min 0,0 UV-I 0 W/m 0,0 km/h (0 Bft)
24.08.2013 06:10 16,2 C 14,4 C 81 % 1012,2 hPa 0,0 l/m 0 min 0 min 0,0 UV-I 0 W/m 2,6 km/h (1 Bft)
24.08.2013 06:12 16,2 C 14,4 C 82 % 1012,2 hPa 0,0 l/m 0 min 0 min 0,0 UV-I 0 W/m 2,6 km/h (1 Bft)
24.08.2013 06:14 16,2 C 14,4 C 82 % 1012,2 hPa 0,0 l/m 0 min 0 min 0,0 UV-I 0 W/m 2,6 km/h (1 Bft)
24.08.2013 06:16 16,2 C 14,4 C 82 % 1012,2 hPa 0,0 l/m 0 min 0 min 0,0 UV-I 0 W/m 0,0 km/h (0 Bft)
24.08.2013 06:18 16,2 C 14,4 C 82 % 1012,2 hPa 0,0 l/m 0 min 0 min 0,0 UV-I 0 W/m 0,0 km/h (0 Bft)
24.08.2013 06:20 16,2 C 14,4 C 83 % 1012,2 hPa 0,0 l/m 0 min 0 min 0,0 UV-I 0 W/m 0,0 km/h (0 Bft)
24.08.2013 06:22 16,2 C 14,4 C 82 % 1012,2 hPa 0,0 l/m 0 min 0 min 0,0 UV-I 0 W/m 0,0 km/h (0 Bft)
24.08.2013 06:24 16,1 C 14,4 C 82 % 1012,2 hPa 0,0 l/m 0 min 0 min 0,0 UV-I 0 W/m 7,7 km/h (2 Bft)
24.08.2013 06:26 16,1 C 14,4 C 82 % 1012,2 hPa 0,0 l/m 0 min 0 min 0,0 UV-I 0 W/m 5,1 km/h (1 Bft)
24.08.2013 06:28 16,1 C 14,4 C 82 % 1012,3 hPa 0,0 l/m 0 min 0 min 0,0 UV-I 0 W/m 2,6 km/h (1 Bft)
24.08.2013 06:30 16,1 C 14,4 C 82 % 1012,2 hPa 0,0 l/m 0 min 0 min 0,0 UV-I 5 W/m 0,0 km/h (0 Bft)
24.08.2013 06:32 16,2 C 14,4 C 82 % 1012,1 hPa 0,0 l/m 0 min 0 min 0,0 UV-I 7 W/m 0,0 km/h (0 Bft)
24.08.2013 06:34 16,2 C 15,0 C 82 % 1012,2 hPa 0,0 l/m 0 min 0 min 0,0 UV-I 7 W/m 2,6 km/h (1 Bft)
24.08.2013 06:36 16,1 C 14,4 C 82 % 1012,2 hPa 0,0 l/m 0 min 0 min 0,0 UV-I 7 W/m 2,6 km/h (1 Bft)
24.08.2013 06:38 16,2 C 15,0 C 84 % 1012,2 hPa 0,0 l/m 0 min 0 min 0,0 UV-I 9 W/m 2,6 km/h (1 Bft)
24.08.2013 06:40 16,2 C 15,0 C 84 % 1012,2 hPa 0,0 l/m 0 min 0 min 0,0 UV-I 7 W/m 2,6 km/h (1 Bft)
24.08.2013 06:42 16,2 C 15,0 C 84 % 1012,1 hPa 0,0 l/m 0 min 0 min 0,0 UV-I 7 W/m 7,7 km/h (2 Bft)
24.08.2013 06:44 16,2 C 15,0 C 82 % 1012,2 hPa 0,0 l/m 0 min 0 min 0,0 UV-I 9 W/m 7,7 km/h (2 Bft)
24.08.2013 06:46 16,2 C 15,0 C 82 % 1012,1 hPa 0,0 l/m 0 min 0 min 0,0 UV-I 9 W/m 2,6 km/h (1 Bft)
24.08.2013 06:48 16,2 C 15,0 C 82 % 1012,1 hPa 0,0 l/m 0 min 0 min 0,0 UV-I 11 W/m 2,6 km/h (1 Bft)
24.08.2013 06:50 16,3 C 15,0 C 82 % 1012,1 hPa 0,0 l/m 0 min 0 min 0,0 UV-I 11 W/m 2,6 km/h (1 Bft)
24.08.2013 06:52 16,3 C 15,0 C 82 % 1012,1 hPa 0,0 l/m 0 min 0 min 0,0 UV-I 12 W/m 2,6 km/h (1 Bft)
24.08.2013 06:54 16,3 C 15,0 C 82 % 1012,1 hPa 0,0 l/m 0 min 0 min 0,0 UV-I 12 W/m 2,6 km/h (1 Bft)
24.08.2013 06:56 16,3 C 15,0 C 82 % 1012,1 hPa 0,0 l/m 0 min 0 min 0,0 UV-I 14 W/m 7,7 km/h (2 Bft)
24.08.2013 06:58 16,3 C 15,0 C 82 % 1012,1 hPa 0,0 l/m 0 min 0 min 0,0 UV-I 14 W/m 12,9 km/h (3 Bft)
24.08.2013 07:00 16,3 C 15,0 C 82 % 1012,1 hPa 0,0 l/m 0 min 0 min 0,0 UV-I 18 W/m 0,0 km/h (0 Bft)
24.08.2013 07:02 16,3 C 15,0 C 82 % 1012,1 hPa 0,0 l/m 0 min 0 min 0,0 UV-I 19 W/m 2,6 km/h (1 Bft)
24.08.2013 07:06 16,3 C 15,0 C 82 % 1012,1 hPa 0,0 l/m 0 min 0 min 0,0 UV-I 23 W/m 2,6 km/h (1 Bft)
24.08.2013 07:08 16,3 C 15,0 C 82 % 1012,1 hPa 0,0 l/m 0 min 0 min 0,0 UV-I 23 W/m 5,1 km/h (1 Bft)
24.08.2013 07:10 16,3 C 15,0 C 82 % 1012,1 hPa 0,0 l/m 0 min 0 min 0,0 UV-I 25 W/m 7,7 km/h (2 Bft)
24.08.2013 07:12 16,4 C 15,0 C 82 % 1012,0 hPa 0,0 l/m 0 min 0 min 0,0 UV-I 26 W/m 2,6 km/h (1 Bft)
24.08.2013 07:14 16,4 C 15,0 C 82 % 1012,0 hPa 0,0 l/m 0 min 0 min 0,0 UV-I 28 W/m 2,6 km/h (1 Bft)
24.08.2013 07:16 16,4 C 15,0 C 82 % 1012,0 hPa 0,0 l/m 0 min 0 min 0,0 UV-I 30 W/m 5,1 km/h (1 Bft)
24.08.2013 07:18 16,4 C 15,0 C 81 % 1011,9 hPa 0,0 l/m 0 min 0 min 0,0 UV-I 33 W/m 10,3 km/h (2 Bft)
24.08.2013 07:20 16,4 C 15,0 C 81 % 1012,0 hPa 0,0 l/m 0 min 0 min 0,0 UV-I 35 W/m 7,7 km/h (2 Bft)
24.08.2013 07:22 16,5 C 15,0 C 81 % 1012,0 hPa 0,0 l/m 0 min 0 min 0,0 UV-I 37 W/m 10,3 km/h (2 Bft)
24.08.2013 07:24 16,5 C 15,0 C 81 % 1011,9 hPa 0,0 l/m 0 min 0 min 0,0 UV-I 40 W/m 0,0 km/h (0 Bft)
24.08.2013 07:26 16,6 C 15,6 C 81 % 1011,9 hPa 0,0 l/m 0 min 0 min 0,0 UV-I 42 W/m 2,6 km/h (1 Bft)
24.08.2013 07:28 16,7 C 15,6 C 81 % 1012,0 hPa 0,0 l/m 0 min 0 min 0,0 UV-I 44 W/m 15,4 km/h (3 Bft)
24.08.2013 07:30 16,7 C 15,6 C 80 % 1011,8 hPa 0,0 l/m 0 min 0 min 0,0 UV-I 49 W/m 10,3 km/h (2 Bft)
24.08.2013 07:32 16,8 C 15,6 C 80 % 1011,8 hPa 0,0 l/m 0 min 0 min 0,0 UV-I 51 W/m 10,3 km/h (2 Bft)
24.08.2013 07:34 16,8 C 15,6 C 80 % 1011,8 hPa 0,0 l/m 0 min 0 min 0,0 UV-I 54 W/m 7,7 km/h (2 Bft)
24.08.2013 07:36 16,9 C 15,6 C 80 % 1011,8 hPa 0,0 l/m 0 min 0 min 0,0 UV-I 58 W/m 5,1 km/h (1 Bft)
24.08.2013 07:38 16,9 C 15,6 C 80 % 1011,8 hPa 0,0 l/m 0 min 0 min 0,0 UV-I 62 W/m 5,1 km/h (1 Bft)
24.08.2013 07:40 16,9 C 15,6 C 80 % 1011,7 hPa 0,0 l/m 0 min 0 min 0,0 UV-I 65 W/m 12,9 km/h (3 Bft)
24.08.2013 07:42 17,0 C 16,1 C 80 % 1011,6 hPa 0,0 l/m 0 min 0 min 0,0 UV-I 69 W/m 10,3 km/h (2 Bft)
24.08.2013 07:44 17,1 C 16,1 C 79 % 1011,7 hPa 0,0 l/m 0 min 0 min 0,0 UV-I 72 W/m 2,6 km/h (1 Bft)
24.08.2013 07:46 17,1 C 16,1 C 79 % 1011,7 hPa 0,0 l/m 0 min 0 min 0,0 UV-I 76 W/m 2,6 km/h (1 Bft)
24.08.2013 07:48 17,1 C 16,1 C 79 % 1011,6 hPa 0,0 l/m 0 min 0 min 0,0 UV-I 79 W/m 0,0 km/h (0 Bft)
24.08.2013 07:50 17,2 C 16,1 C 79 % 1011,6 hPa 0,0 l/m 0 min 0 min 0,0 UV-I 81 W/m 7,7 km/h (2 Bft)
24.08.2013 07:52 17,2 C 16,1 C 79 % 1011,6 hPa 0,0 l/m 0 min 0 min 0,0 UV-I 84 W/m 5,1 km/h (1 Bft)
24.08.2013 07:54 17,2 C 16,1 C 79 % 1011,6 hPa 0,0 l/m 0 min 0 min 0,0 UV-I 88 W/m 2,6 km/h (1 Bft)
24.08.2013 07:56 17,3 C 16,1 C 79 % 1011,5 hPa 0,0 l/m 0 min 0 min 0,0 UV-I 90 W/m 10,3 km/h (2 Bft)
24.08.2013 07:58 17,3 C 16,1 C 79 % 1011,5 hPa 0,0 l/m 0 min 0 min 0,0 UV-I 91 W/m 12,9 km/h (3 Bft)
24.08.2013 08:00 17,4 C 16,7 C 79 % 1011,5 hPa 0,0 l/m 0 min 0 min 0,0 UV-I 95 W/m 10,3 km/h (2 Bft)
24.08.2013 08:02 17,4 C 16,7 C 79 % 1011,5 hPa 0,0 l/m 0 min 0 min 0,0 UV-I 97 W/m 10,3 km/h (2 Bft)
24.08.2013 08:06 17,5 C 16,7 C 78 % 1011,5 hPa 0,0 l/m 0 min 0 min 0,0 UV-I 98 W/m 7,7 km/h (2 Bft)
24.08.2013 08:08 17,6 C 16,7 C 78 % 1011,5 hPa 0,0 l/m 0 min 0 min 0,0 UV-I 98 W/m 12,9 km/h (3 Bft)
24.08.2013 08:10 17,6 C 16,7 C 78 % 1011,5 hPa 0,0 l/m 0 min 0 min 0,0 UV-I 98 W/m 2,6 km/h (1 Bft)
24.08.2013 08:12 17,7 C 16,7 C 78 % 1011,5 hPa 0,0 l/m 0 min 0 min 0,0 UV-I 100 W/m 0,0 km/h (0 Bft)
24.08.2013 08:14 17,7 C 16,7 C 78 % 1011,5 hPa 0,0 l/m 0 min 0 min 0,0 UV-I 102 W/m 5,1 km/h (1 Bft)
24.08.2013 08:16 17,7 C 16,7 C 78 % 1011,4 hPa 0,0 l/m 0 min 0 min 0,0 UV-I 104 W/m 10,3 km/h (2 Bft)
24.08.2013 08:18 17,8 C 16,7 C 78 % 1011,4 hPa 0,0 l/m 0 min 0 min 0,0 UV-I 107 W/m 15,4 km/h (3 Bft)
24.08.2013 08:20 17,8 C 16,7 C 78 % 1011,4 hPa 0,0 l/m 0 min 0 min 0,0 UV-I 109 W/m 15,4 km/h (3 Bft)
24.08.2013 08:22 17,8 C 16,7 C 77 % 1011,4 hPa 0,0 l/m 0 min 0 min 0,0 UV-I 109 W/m 12,9 km/h (3 Bft)
24.08.2013 08:24 17,9 C 16,7 C 77 % 1011,4 hPa 0,0 l/m 0 min 0 min 0,0 UV-I 121 W/m 12,9 km/h (3 Bft)
24.08.2013 08:26 17,9 C 16,7 C 77 % 1011,4 hPa 0,0 l/m 0 min 0 min 0,0 UV-I 125 W/m 0,0 km/h (0 Bft)
24.08.2013 08:28 18,0 C 17,2 C 77 % 1011,5 hPa 0,0 l/m 0 min 0 min 0,0 UV-I 123 W/m 2,6 km/h (1 Bft)
24.08.2013 08:30 18,1 C 17,2 C 77 % 1011,4 hPa 0,0 l/m 0 min 0 min 0,0 UV-I 121 W/m 10,3 km/h (2 Bft)
24.08.2013 08:32 18,1 C 17,2 C 77 % 1011,4 hPa 0,0 l/m 0 min 0 min 0,0 UV-I 125 W/m 12,9 km/h (3 Bft)
24.08.2013 08:34 18,1 C 17,2 C 76 % 1011,4 hPa 0,0 l/m 0 min 0 min 0,0 UV-I 130 W/m 7,7 km/h (2 Bft)
24.08.2013 08:36 18,1 C 17,2 C 77 % 1011,3 hPa 0,0 l/m 0 min 0 min 0,0 UV-I 132 W/m 12,9 km/h (3 Bft)
24.08.2013 08:38 18,2 C 17,2 C 76 % 1011,4 hPa 0,0 l/m 0 min 0 min 0,0 UV-I 135 W/m 10,3 km/h (2 Bft)
24.08.2013 08:40 18,2 C 17,2 C 76 % 1011,3 hPa 0,0 l/m 2 min 0 min 0,0 UV-I 155 W/m 12,9 km/h (3 Bft)
24.08.2013 08:42 18,2 C 17,2 C 76 % 1011,3 hPa 0,0 l/m 2 min 0 min 0,0 UV-I 163 W/m 15,4 km/h (3 Bft)
24.08.2013 08:44 18,3 C 17,2 C 76 % 1011,3 hPa 0,0 l/m 2 min 0 min 0,0 UV-I 167 W/m 10,3 km/h (2 Bft)
24.08.2013 08:46 18,3 C 17,2 C 75 % 1011,3 hPa 0,0 l/m 0 min 0 min 0,0 UV-I 144 W/m 15,4 km/h (3 Bft)
24.08.2013 08:48 18,4 C 17,2 C 75 % 1011,2 hPa 0,0 l/m 0 min 0 min 0,0 UV-I 149 W/m 10,3 km/h (2 Bft)
24.08.2013 08:50 18,4 C 17,2 C 75 % 1011,3 hPa 0,0 l/m 0 min 0 min 0,0 UV-I 163 W/m 15,4 km/h (3 Bft)
24.08.2013 08:52 18,4 C 17,8 C 75 % 1011,2 hPa 0,0 l/m 2 min 0 min 0,0 UV-I 204 W/m 10,3 km/h (2 Bft)
24.08.2013 08:54 18,5 C 17,8 C 75 % 1011,2 hPa 0,0 l/m 2 min 0 min 0,0 UV-I 232 W/m 5,1 km/h (1 Bft)
24.08.2013 08:56 18,6 C 17,8 C 75 % 1011,3 hPa 0,0 l/m 2 min 0 min 0,0 UV-I 257 W/m 12,9 km/h (3 Bft)
24.08.2013 08:58 18,7 C 17,8 C 74 % 1011,3 hPa 0,0 l/m 2 min 0 min 0,0 UV-I 230 W/m 7,7 km/h (2 Bft)
24.08.2013 09:00 18,8 C 17,8 C 74 % 1011,2 hPa 0,0 l/m 2 min 0 min 0,0 UV-I 232 W/m 18,0 km/h (3 Bft)
24.08.2013 09:02 18,9 C 17,8 C 74 % 1011,2 hPa 0,0 l/m 2 min 0 min 0,0 UV-I 220 W/m 7,7 km/h (2 Bft)
24.08.2013 09:06 19,0 C 18,3 C 73 % 1011,1 hPa 0,0 l/m 2 min 0 min 0,0 UV-I 204 W/m 23,2 km/h (4 Bft)
24.08.2013 09:08 19,1 C 18,3 C 73 % 1011,1 hPa 0,0 l/m 2 min 0 min 0,0 UV-I 207 W/m 0,0 km/h (0 Bft)
24.08.2013 09:10 19,1 C 18,3 C 73 % 1011,1 hPa 0,0 l/m 2 min 0 min 0,0 UV-I 236 W/m 18,0 km/h (3 Bft)
24.08.2013 09:12 19,2 C 18,3 C 72 % 1011,2 hPa 0,0 l/m 2 min 0 min 0,0 UV-I 271 W/m 18,0 km/h (3 Bft)
24.08.2013 09:14 19,2 C 18,3 C 73 % 1011,1 hPa 0,0 l/m 2 min 0 min 0,0 UV-I 220 W/m 12,9 km/h (3 Bft)
24.08.2013 09:16 19,3 C 18,3 C 73 % 1011,1 hPa 0,0 l/m 2 min 0 min 0,0 UV-I 207 W/m 15,4 km/h (3 Bft)
24.08.2013 09:18 19,3 C 18,3 C 72 % 1011,1 hPa 0,0 l/m 2 min 0 min 0,0 UV-I 221 W/m 15,4 km/h (3 Bft)
24.08.2013 09:20 19,4 C 18,3 C 72 % 1011,1 hPa 0,0 l/m 0 min 0 min 0,0 UV-I 181 W/m 18,0 km/h (3 Bft)
24.08.2013 09:22 19,4 C 18,3 C 72 % 1011,0 hPa 0,0 l/m 0 min 0 min 0,0 UV-I 163 W/m 18,0 km/h (3 Bft)
24.08.2013 09:24 19,4 C 18,3 C 72 % 1011,1 hPa 0,0 l/m 0 min 0 min 0,0 UV-I 171 W/m 25,7 km/h (4 Bft)
24.08.2013 09:26 19,4 C 18,3 C 72 % 1011,1 hPa 0,0 l/m 0 min 0 min 0,0 UV-I 171 W/m 12,9 km/h (3 Bft)
24.08.2013 09:28 19,4 C 18,3 C 72 % 1011,0 hPa 0,0 l/m 0 min 0 min 0,0 UV-I 167 W/m 15,4 km/h (3 Bft)
24.08.2013 09:30 19,4 C 18,3 C 72 % 1011,1 hPa 0,0 l/m 0 min 0 min 0,0 UV-I 171 W/m 12,9 km/h (3 Bft)
24.08.2013 09:32 19,4 C 18,3 C 72 % 1011,0 hPa 0,0 l/m 0 min 0 min 0,0 UV-I 174 W/m 18,0 km/h (3 Bft)
24.08.2013 09:34 19,4 C 18,3 C 72 % 1011,1 hPa 0,0 l/m 0 min 0 min 0,0 UV-I 165 W/m 15,4 km/h (3 Bft)
24.08.2013 09:36 19,4 C 18,3 C 72 % 1011,1 hPa 0,0 l/m 0 min 0 min 0,0 UV-I 169 W/m 12,9 km/h (3 Bft)
24.08.2013 09:38 19,5 C 18,3 C 72 % 1011,1 hPa 0,0 l/m 0 min 0 min 0,0 UV-I 176 W/m 10,3 km/h (2 Bft)
24.08.2013 09:40 19,5 C 18,9 C 72 % 1011,0 hPa 0,0 l/m 0 min 0 min 0,0 UV-I 172 W/m 15,4 km/h (3 Bft)
24.08.2013 09:42 19,6 C 18,9 C 72 % 1011,0 hPa 0,0 l/m 0 min 0 min 0,0 UV-I 169 W/m 12,9 km/h (3 Bft)
24.08.2013 09:44 19,6 C 18,9 C 72 % 1011,0 hPa 0,0 l/m 0 min 0 min 0,0 UV-I 176 W/m 18,0 km/h (3 Bft)
24.08.2013 09:46 19,6 C 18,9 C 72 % 1010,9 hPa 0,0 l/m 0 min 0 min 0,5 UV-I 207 W/m 12,9 km/h (3 Bft)
24.08.2013 09:48 19,7 C 18,9 C 72 % 1010,9 hPa 0,0 l/m 0 min 0 min 0,5 UV-I 214 W/m 2,6 km/h (1 Bft)
24.08.2013 09:50 19,7 C 19,4 C 72 % 1010,9 hPa 0,0 l/m 2 min 0 min 0,6 UV-I 236 W/m 12,9 km/h (3 Bft)
24.08.2013 09:52 19,8 C 19,4 C 72 % 1011,0 hPa 0,0 l/m 2 min 0 min 0,6 UV-I 257 W/m 7,7 km/h (2 Bft)
24.08.2013 09:54 19,9 C 19,4 C 71 % 1010,9 hPa 0,0 l/m 2 min 0 min 0,7 UV-I 272 W/m 10,3 km/h (2 Bft)
24.08.2013 09:56 20,0 C 19,4 C 72 % 1010,9 hPa 0,0 l/m 2 min 0 min 0,7 UV-I 258 W/m 2,6 km/h (1 Bft)
24.08.2013 09:58 20,1 C 19,4 C 71 % 1011,0 hPa 0,0 l/m 2 min 0 min 0,8 UV-I 285 W/m 10,3 km/h (2 Bft)
24.08.2013 10:00 20,2 C 19,4 C 71 % 1011,0 hPa 0,0 l/m 2 min 0 min 0,9 UV-I 357 W/m 7,7 km/h (2 Bft)
24.08.2013 10:02 20,4 C 19,4 C 71 % 1011,0 hPa 0,0 l/m 2 min 0 min 1,0 UV-I 394 W/m 12,9 km/h (3 Bft)
24.08.2013 10:06 20,7 C 20,0 C 70 % 1011,1 hPa 0,0 l/m 2 min 0 min 1,0 UV-I 346 W/m 10,3 km/h (2 Bft)
24.08.2013 10:08 20,9 C 20,0 C 70 % 1011,0 hPa 0,0 l/m 2 min 0 min 1,2 UV-I 457 W/m 10,3 km/h (2 Bft)
24.08.2013 10:10 21,1 C 20,6 C 70 % 1011,1 hPa 0,0 l/m 2 min 0 min 1,3 UV-I 475 W/m 12,9 km/h (3 Bft)
24.08.2013 10:12 21,3 C 20,6 C 68 % 1011,1 hPa 0,0 l/m 2 min 0 min 1,3 UV-I 462 W/m 12,9 km/h (3 Bft)
24.08.2013 10:14 21,5 C 20,6 C 68 % 1011,1 hPa 0,0 l/m 2 min 0 min 1,3 UV-I 410 W/m 7,7 km/h (2 Bft)
24.08.2013 10:16 21,6 C 21,1 C 67 % 1011,0 hPa 0,0 l/m 2 min 0 min 1,3 UV-I 459 W/m 15,4 km/h (3 Bft)
24.08.2013 10:18 21,7 C 21,1 C 66 % 1011,1 hPa 0,0 l/m 2 min 0 min 1,5 UV-I 497 W/m 23,2 km/h (4 Bft)
24.08.2013 10:20 21,7 C 21,1 C 66 % 1011,1 hPa 0,0 l/m 2 min 0 min 1,5 UV-I 503 W/m 18,0 km/h (3 Bft)
24.08.2013 10:22 21,8 C 21,1 C 66 % 1011,1 hPa 0,0 l/m 2 min 0 min 1,6 UV-I 504 W/m 23,2 km/h (4 Bft)
24.08.2013 10:24 21,8 C 21,1 C 65 % 1011,1 hPa 0,0 l/m 2 min 0 min 1,6 UV-I 513 W/m 28,3 km/h (4 Bft)
24.08.2013 10:26 21,9 C 21,1 C 66 % 1011,1 hPa 0,0 l/m 2 min 0 min 1,6 UV-I 513 W/m 41,2 km/h (6 Bft)
24.08.2013 10:28 22,0 C 21,1 C 65 % 1011,0 hPa 0,0 l/m 2 min 0 min 1,5 UV-I 452 W/m 25,7 km/h (4 Bft)
24.08.2013 10:30 22,1 C 21,1 C 64 % 1011,0 hPa 0,0 l/m 2 min 0 min 1,4 UV-I 381 W/m 10,3 km/h (2 Bft)
24.08.2013 10:32 22,1 C 21,1 C 64 % 1011,0 hPa 0,0 l/m 2 min 0 min 1,6 UV-I 471 W/m 12,9 km/h (3 Bft)
24.08.2013 10:34 22,1 C 21,1 C 64 % 1010,9 hPa 0,0 l/m 2 min 0 min 1,7 UV-I 512 W/m 15,4 km/h (3 Bft)
24.08.2013 10:36 22,2 C 21,7 C 64 % 1010,9 hPa 0,0 l/m 2 min 0 min 1,8 UV-I 520 W/m 25,7 km/h (4 Bft)
24.08.2013 10:38 22,3 C 21,7 C 64 % 1010,8 hPa 0,0 l/m 2 min 0 min 1,9 UV-I 598 W/m 23,2 km/h (4 Bft)
24.08.2013 10:40 22,3 C 21,7 C 63 % 1010,8 hPa 0,0 l/m 2 min 0 min 1,9 UV-I 582 W/m 25,7 km/h (4 Bft)
24.08.2013 10:42 22,4 C 22,2 C 63 % 1010,9 hPa 0,0 l/m 2 min 0 min 2,0 UV-I 591 W/m 23,2 km/h (4 Bft)
24.08.2013 10:44 22,6 C 22,8 C 63 % 1010,9 hPa 0,0 l/m 2 min 0 min 2,0 UV-I 578 W/m 23,2 km/h (4 Bft)
24.08.2013 10:46 22,8 C 22,8 C 63 % 1010,9 hPa 0,0 l/m 2 min 0 min 2,0 UV-I 573 W/m 28,3 km/h (4 Bft)
24.08.2013 10:48 22,9 C 22,8 C 62 % 1010,9 hPa 0,0 l/m 2 min 0 min 2,0 UV-I 570 W/m 30,9 km/h (5 Bft)
24.08.2013 10:50 22,9 C 22,2 C 62 % 1010,9 hPa 0,0 l/m 2 min 0 min 2,0 UV-I 561 W/m 20,6 km/h (4 Bft)
24.08.2013 10:52 23,0 C 22,2 C 61 % 1010,8 hPa 0,0 l/m 2 min 0 min 2,2 UV-I 619 W/m 23,2 km/h (4 Bft)
24.08.2013 10:54 23,0 C 22,2 C 62 % 1010,8 hPa 0,0 l/m 2 min 0 min 2,2 UV-I 605 W/m 23,2 km/h (4 Bft)
24.08.2013 10:56 22,9 C 22,2 C 61 % 1010,8 hPa 0,0 l/m 2 min 0 min 1,8 UV-I 594 W/m 23,2 km/h (4 Bft)
24.08.2013 10:58 22,8 C 22,2 C 61 % 1010,8 hPa 0,0 l/m 2 min 0 min 2,0 UV-I 496 W/m 20,6 km/h (4 Bft)
24.08.2013 11:00 22,8 C 22,2 C 62 % 1010,8 hPa 0,0 l/m 2 min 0 min 2,0 UV-I 517 W/m 25,7 km/h (4 Bft)
24.08.2013 11:02 22,8 C 22,2 C 63 % 1010,7 hPa 0,0 l/m 2 min 0 min 2,0 UV-I 485 W/m 25,7 km/h (4 Bft)
24.08.2013 11:06 22,8 C 22,2 C 62 % 1010,8 hPa 0,0 l/m 2 min 0 min 2,0 UV-I 483 W/m 23,2 km/h (4 Bft)
24.08.2013 11:08 22,8 C 22,2 C 62 % 1010,7 hPa 0,0 l/m 2 min 0 min 1,9 UV-I 424 W/m 23,2 km/h (4 Bft)
24.08.2013 11:10 22,8 C 22,8 C 62 % 1010,6 hPa 0,0 l/m 2 min 0 min 1,7 UV-I 506 W/m 23,2 km/h (4 Bft)
24.08.2013 11:12 22,8 C 22,8 C 62 % 1010,5 hPa 0,0 l/m 2 min 0 min 2,1 UV-I 548 W/m 15,4 km/h (3 Bft)
24.08.2013 11:14 22,9 C 22,8 C 62 % 1010,6 hPa 0,0 l/m 2 min 0 min 2,1 UV-I 510 W/m 15,4 km/h (3 Bft)
24.08.2013 11:16 23,0 C 23,3 C 62 % 1010,6 hPa 0,0 l/m 2 min 0 min 2,1 UV-I 519 W/m 20,6 km/h (4 Bft)
24.08.2013 11:18 23,1 C 23,3 C 62 % 1010,6 hPa 0,0 l/m 2 min 0 min 2,1 UV-I 473 W/m 7,7 km/h (2 Bft)
24.08.2013 11:20 23,4 C 23,9 C 64 % 1010,7 hPa 0,0 l/m 2 min 0 min 2,2 UV-I 573 W/m 12,9 km/h (3 Bft)
24.08.2013 11:22 23,6 C 23,9 C 62 % 1010,7 hPa 0,0 l/m 2 min 0 min 2,2 UV-I 570 W/m 12,9 km/h (3 Bft)
24.08.2013 11:24 23,8 C 23,9 C 62 % 1010,8 hPa 0,0 l/m 2 min 0 min 2,1 UV-I 555 W/m 7,7 km/h (2 Bft)
24.08.2013 11:26 23,9 C 24,4 C 61 % 1010,8 hPa 0,0 l/m 2 min 0 min 1,8 UV-I 436 W/m 15,4 km/h (3 Bft)
24.08.2013 11:28 23,8 C 23,9 C 60 % 1011,0 hPa 0,0 l/m 2 min 0 min 1,5 UV-I 348 W/m 23,2 km/h (4 Bft)
24.08.2013 11:30 23,7 C 23,9 C 60 % 1011,0 hPa 0,0 l/m 0 min 0 min 1,3 UV-I 288 W/m 25,7 km/h (4 Bft)
24.08.2013 11:32 23,4 C 23,3 C 60 % 1011,0 hPa 0,0 l/m 0 min 0 min 1,2 UV-I 271 W/m 20,6 km/h (4 Bft)
24.08.2013 11:34 23,2 C 23,3 C 61 % 1011,0 hPa 0,0 l/m 0 min 0 min 1,2 UV-I 262 W/m 23,2 km/h (4 Bft)
24.08.2013 11:36 23,1 C 22,8 C 61 % 1011,1 hPa 0,0 l/m 0 min 0 min 1,2 UV-I 258 W/m 18,0 km/h (3 Bft)
24.08.2013 11:38 22,9 C 22,8 C 61 % 1010,9 hPa 0,0 l/m 0 min 0 min 1,2 UV-I 260 W/m 25,7 km/h (4 Bft)
24.08.2013 11:40 22,8 C 22,8 C 62 % 1010,8 hPa 0,0 l/m 0 min 0 min 1,2 UV-I 265 W/m 15,4 km/h (3 Bft)
24.08.2013 11:42 22,8 C 22,8 C 61 % 1010,9 hPa 0,0 l/m 0 min 0 min 1,3 UV-I 272 W/m 23,2 km/h (4 Bft)
24.08.2013 11:44 22,8 C 22,8 C 63 % 1010,9 hPa 0,0 l/m 0 min 0 min 1,3 UV-I 274 W/m 5,1 km/h (1 Bft)
24.08.2013 11:46 22,8 C 22,8 C 63 % 1010,9 hPa 0,0 l/m 0 min 0 min 1,3 UV-I 274 W/m 18,0 km/h (3 Bft)
24.08.2013 11:48 22,8 C 22,8 C 62 % 1011,0 hPa 0,0 l/m 0 min 0 min 1,3 UV-I 276 W/m 15,4 km/h (3 Bft)
24.08.2013 11:50 22,7 C 22,8 C 62 % 1010,9 hPa 0,0 l/m 0 min 0 min 1,3 UV-I 278 W/m 20,6 km/h (4 Bft)
24.08.2013 11:52 22,7 C 22,8 C 63 % 1010,9 hPa 0,0 l/m 0 min 0 min 1,3 UV-I 283 W/m 12,9 km/h (3 Bft)
24.08.2013 11:54 22,7 C 22,8 C 63 % 1011,0 hPa 0,0 l/m 0 min 0 min 1,4 UV-I 304 W/m 2,6 km/h (1 Bft)
24.08.2013 11:56 22,7 C 22,8 C 63 % 1010,9 hPa 0,0 l/m 0 min 0 min 1,5 UV-I 323 W/m 15,4 km/h (3 Bft)
24.08.2013 11:58 22,7 C 22,8 C 63 % 1010,9 hPa 0,0 l/m 0 min 0 min 1,5 UV-I 322 W/m 18,0 km/h (3 Bft)
24.08.2013 12:00 22,7 C 22,8 C 62 % 1010,9 hPa 0,0 l/m 0 min 0 min 1,5 UV-I 318 W/m 23,2 km/h (4 Bft)
24.08.2013 12:02 22,7 C 22,8 C 63 % 1010,9 hPa 0,0 l/m 0 min 0 min 1,5 UV-I 309 W/m 12,9 km/h (3 Bft)
24.08.2013 12:06 22,6 C 22,8 C 63 % 1010,9 hPa 0,0 l/m 0 min 0 min 1,4 UV-I 294 W/m 12,9 km/h (3 Bft)
24.08.2013 12:08 22,6 C 22,8 C 64 % 1010,9 hPa 0,0 l/m 0 min 0 min 1,4 UV-I 290 W/m 15,4 km/h (3 Bft)
24.08.2013 12:10 22,6 C 22,2 C 64 % 1010,8 hPa 0,0 l/m 0 min 0 min 1,4 UV-I 287 W/m 12,9 km/h (3 Bft)
24.08.2013 12:12 22,6 C 22,2 C 63 % 1010,8 hPa 0,0 l/m 0 min 0 min 1,4 UV-I 288 W/m 18,0 km/h (3 Bft)
24.08.2013 12:14 22,6 C 22,8 C 63 % 1010,8 hPa 0,0 l/m 0 min 0 min 1,4 UV-I 288 W/m 18,0 km/h (3 Bft)
24.08.2013 12:16 22,6 C 22,2 C 63 % 1010,9 hPa 0,0 l/m 0 min 0 min 1,5 UV-I 292 W/m 18,0 km/h (3 Bft)
24.08.2013 12:18 22,4 C 22,2 C 63 % 1010,9 hPa 0,0 l/m 0 min 0 min 1,5 UV-I 308 W/m 12,9 km/h (3 Bft)
24.08.2013 12:20 22,5 C 22,2 C 64 % 1010,8 hPa 0,0 l/m 0 min 0 min 1,6 UV-I 322 W/m 23,2 km/h (4 Bft)
24.08.2013 12:22 22,6 C 22,8 C 64 % 1010,8 hPa 0,0 l/m 0 min 0 min 1,6 UV-I 323 W/m 15,4 km/h (3 Bft)
24.08.2013 12:24 22,6 C 22,8 C 64 % 1010,8 hPa 0,0 l/m 0 min 0 min 1,6 UV-I 323 W/m 2,6 km/h (1 Bft)
24.08.2013 12:26 22,7 C 22,8 C 64 % 1010,8 hPa 0,0 l/m 0 min 0 min 1,7 UV-I 330 W/m 12,9 km/h (3 Bft)
24.08.2013 12:28 22,7 C 22,8 C 64 % 1010,8 hPa 0,0 l/m 0 min 0 min 1,7 UV-I 327 W/m 2,6 km/h (1 Bft)
24.08.2013 12:30 22,7 C 22,8 C 64 % 1010,8 hPa 0,0 l/m 0 min 0 min 1,7 UV-I 320 W/m 10,3 km/h (2 Bft)
24.08.2013 12:32 22,7 C 22,8 C 63 % 1010,9 hPa 0,0 l/m 0 min 0 min 1,7 UV-I 318 W/m 18,0 km/h (3 Bft)
24.08.2013 12:34 22,7 C 22,8 C 63 % 1010,8 hPa 0,0 l/m 0 min 0 min 1,7 UV-I 323 W/m 18,0 km/h (3 Bft)
24.08.2013 12:36 22,8 C 22,8 C 64 % 1010,9 hPa 0,0 l/m 0 min 0 min 1,7 UV-I 325 W/m 10,3 km/h (2 Bft)
24.08.2013 12:38 22,8 C 22,8 C 64 % 1010,9 hPa 0,0 l/m 0 min 0 min 1,7 UV-I 322 W/m 10,3 km/h (2 Bft)
24.08.2013 12:40 22,7 C 22,8 C 64 % 1010,9 hPa 0,0 l/m 0 min 0 min 1,7 UV-I 320 W/m 10,3 km/h (2 Bft)
24.08.2013 12:42 22,7 C 22,8 C 63 % 1010,8 hPa 0,0 l/m 0 min 0 min 1,7 UV-I 323 W/m 12,9 km/h (3 Bft)
24.08.2013 12:44 22,7 C 22,8 C 63 % 1010,8 hPa 0,0 l/m 0 min 0 min 1,7 UV-I 327 W/m 12,9 km/h (3 Bft)
24.08.2013 12:46 22,6 C 22,8 C 63 % 1010,8 hPa 0,0 l/m 0 min 0 min 1,7 UV-I 346 W/m 10,3 km/h (2 Bft)
24.08.2013 12:48 22,6 C 22,8 C 64 % 1010,7 hPa 0,0 l/m 2 min 0 min 1,8 UV-I 366 W/m 18,0 km/h (3 Bft)
24.08.2013 12:50 22,6 C 22,8 C 64 % 1010,8 hPa 0,0 l/m 0 min 0 min 1,7 UV-I 348 W/m 2,6 km/h (1 Bft)
24.08.2013 12:52 22,7 C 23,3 C 65 % 1010,7 hPa 0,0 l/m 0 min 0 min 1,7 UV-I 329 W/m 5,1 km/h (1 Bft)
24.08.2013 12:54 22,6 C 23,3 C 64 % 1010,6 hPa 0,0 l/m 0 min 0 min 1,6 UV-I 316 W/m 2,6 km/h (1 Bft)
24.08.2013 12:56 22,7 C 23,3 C 65 % 1010,7 hPa 0,0 l/m 0 min 0 min 1,6 UV-I 302 W/m 15,4 km/h (3 Bft)
24.08.2013 12:58 22,7 C 22,8 C 65 % 1010,6 hPa 0,0 l/m 0 min 0 min 1,5 UV-I 276 W/m 12,9 km/h (3 Bft)
24.08.2013 13:00 22,7 C 22,8 C 64 % 1010,6 hPa 0,0 l/m 0 min 0 min 1,4 UV-I 262 W/m 10,3 km/h (2 Bft)
24.08.2013 13:02 22,7 C 22,8 C 65 % 1010,6 hPa 0,0 l/m 0 min 0 min 1,3 UV-I 250 W/m 2,6 km/h (1 Bft)
24.08.2013 13:06 22,6 C 22,8 C 65 % 1010,7 hPa 0,0 l/m 0 min 0 min 1,2 UV-I 227 W/m 5,1 km/h (1 Bft)
24.08.2013 13:08 22,6 C 22,8 C 65 % 1010,6 hPa 0,0 l/m 0 min 0 min 1,1 UV-I 220 W/m 0,0 km/h (0 Bft)
24.08.2013 13:10 22,4 C 22,2 C 64 % 1010,7 hPa 0,0 l/m 0 min 0 min 1,1 UV-I 214 W/m 7,7 km/h (2 Bft)
24.08.2013 13:12 22,3 C 22,2 C 65 % 1010,7 hPa 0,0 l/m 0 min 0 min 1,1 UV-I 216 W/m 2,6 km/h (1 Bft)
24.08.2013 13:14 22,2 C 22,2 C 65 % 1010,7 hPa 0,0 l/m 0 min 0 min 1,1 UV-I 218 W/m 2,6 km/h (1 Bft)
24.08.2013 13:16 22,1 C 21,7 C 66 % 1010,6 hPa 0,0 l/m 0 min 0 min 1,1 UV-I 225 W/m 5,1 km/h (1 Bft)
24.08.2013 13:18 22,0 C 21,7 C 66 % 1010,7 hPa 0,0 l/m 0 min 0 min 1,1 UV-I 230 W/m 2,6 km/h (1 Bft)
24.08.2013 13:20 22,0 C 21,7 C 67 % 1010,6 hPa 0,0 l/m 0 min 0 min 1,2 UV-I 237 W/m 0,0 km/h (0 Bft)
24.08.2013 13:22 22,0 C 22,2 C 67 % 1010,6 hPa 0,0 l/m 0 min 0 min 1,2 UV-I 246 W/m 2,6 km/h (1 Bft)
24.08.2013 13:24 22,1 C 22,2 C 66 % 1010,7 hPa 0,0 l/m 0 min 0 min 1,3 UV-I 251 W/m 2,6 km/h (1 Bft)
24.08.2013 13:26 22,2 C 22,2 C 68 % 1010,6 hPa 0,0 l/m 0 min 0 min 1,3 UV-I 253 W/m 2,6 km/h (1 Bft)
24.08.2013 13:28 22,2 C 22,2 C 66 % 1010,6 hPa 0,0 l/m 0 min 0 min 1,3 UV-I 253 W/m 2,6 km/h (1 Bft)
24.08.2013 13:30 22,2 C 22,2 C 66 % 1010,6 hPa 0,0 l/m 0 min 0 min 1,3 UV-I 255 W/m 2,6 km/h (1 Bft)
24.08.2013 13:32 22,2 C 22,2 C 66 % 1010,6 hPa 0,0 l/m 0 min 0 min 1,3 UV-I 257 W/m 0,0 km/h (0 Bft)
24.08.2013 13:34 22,3 C 22,2 C 66 % 1010,6 hPa 0,0 l/m 0 min 0 min 1,3 UV-I 260 W/m 2,6 km/h (1 Bft)
24.08.2013 13:36 22,3 C 22,2 C 67 % 1010,6 hPa 0,0 l/m 0 min 0 min 1,3 UV-I 265 W/m 12,9 km/h (3 Bft)
24.08.2013 13:38 22,3 C 22,8 C 67 % 1010,5 hPa 0,0 l/m 0 min 0 min 1,3 UV-I 267 W/m 7,7 km/h (2 Bft)
24.08.2013 13:40 22,4 C 22,8 C 67 % 1010,5 hPa 0,0 l/m 0 min 0 min 1,3 UV-I 265 W/m 5,1 km/h (1 Bft)
24.08.2013 13:42 22,4 C 22,8 C 67 % 1010,5 hPa 0,0 l/m 0 min 0 min 1,3 UV-I 264 W/m 15,4 km/h (3 Bft)
24.08.2013 13:44 22,4 C 22,8 C 68 % 1010,5 hPa 0,0 l/m 0 min 0 min 1,3 UV-I 262 W/m 0,0 km/h (0 Bft)
24.08.2013 13:46 22,3 C 22,2 C 66 % 1010,6 hPa 0,0 l/m 0 min 0 min 1,2 UV-I 264 W/m 5,1 km/h (1 Bft)
24.08.2013 13:48 22,3 C 22,2 C 67 % 1010,5 hPa 0,0 l/m 0 min 0 min 1,2 UV-I 258 W/m 0,0 km/h (0 Bft)
24.08.2013 13:50 22,3 C 22,2 C 67 % 1010,5 hPa 0,0 l/m 0 min 0 min 1,2 UV-I 257 W/m 0,0 km/h (0 Bft)
24.08.2013 13:52 22,3 C 22,2 C 68 % 1010,5 hPa 0,0 l/m 0 min 0 min 1,2 UV-I 255 W/m 5,1 km/h (1 Bft)
24.08.2013 13:54 22,3 C 22,2 C 69 % 1010,5 hPa 0,0 l/m 0 min 0 min 1,2 UV-I 257 W/m 12,9 km/h (3 Bft)
24.08.2013 13:56 22,2 C 22,2 C 70 % 1010,5 hPa 0,0 l/m 0 min 0 min 1,2 UV-I 262 W/m 12,9 km/h (3 Bft)
24.08.2013 13:58 22,2 C 22,2 C 70 % 1010,5 hPa 0,0 l/m 0 min 0 min 1,3 UV-I 262 W/m 2,6 km/h (1 Bft)
24.08.2013 14:00 22,1 C 22,2 C 70 % 1010,5 hPa 0,0 l/m 0 min 0 min 1,3 UV-I 260 W/m 7,7 km/h (2 Bft)
24.08.2013 14:02 22,0 C 22,2 C 71 % 1010,4 hPa 0,0 l/m 0 min 0 min 1,3 UV-I 253 W/m 5,1 km/h (1 Bft)
24.08.2013 14:06 21,9 C 22,2 C 72 % 1010,5 hPa 0,0 l/m 0 min 0 min 1,3 UV-I 258 W/m 2,6 km/h (1 Bft)
24.08.2013 14:08 21,8 C 21,7 C 72 % 1010,5 hPa 0,0 l/m 0 min 0 min 1,3 UV-I 283 W/m 2,6 km/h (1 Bft)
24.08.2013 14:10 21,7 C 21,7 C 71 % 1010,5 hPa 0,0 l/m 0 min 0 min 1,4 UV-I 288 W/m 10,3 km/h (2 Bft)
24.08.2013 14:12 21,7 C 21,7 C 72 % 1010,5 hPa 0,0 l/m 0 min 0 min 1,5 UV-I 311 W/m 2,6 km/h (1 Bft)
24.08.2013 14:14 21,7 C 22,2 C 72 % 1010,5 hPa 0,0 l/m 0 min 0 min 1,6 UV-I 318 W/m 2,6 km/h (1 Bft)
24.08.2013 14:16 21,8 C 22,2 C 72 % 1010,5 hPa 0,0 l/m 0 min 2 min 1,7 UV-I 327 W/m 0,0 km/h (0 Bft)
24.08.2013 14:18 21,9 C 22,2 C 72 % 1010,5 hPa 0,0 l/m 0 min 0 min 1,7 UV-I 320 W/m 2,6 km/h (1 Bft)
24.08.2013 14:20 21,9 C 22,2 C 72 % 1010,6 hPa 0,0 l/m 0 min 0 min 1,6 UV-I 318 W/m 2,6 km/h (1 Bft)
24.08.2013 14:22 21,9 C 22,2 C 72 % 1010,5 hPa 0,0 l/m 0 min 0 min 1,6 UV-I 311 W/m 7,7 km/h (2 Bft)
24.08.2013 14:24 22,0 C 22,8 C 72 % 1010,6 hPa 0,0 l/m 0 min 0 min 1,6 UV-I 309 W/m 7,7 km/h (2 Bft)
24.08.2013 14:26 21,9 C 22,2 C 72 % 1010,6 hPa 0,0 l/m 0 min 0 min 1,6 UV-I 302 W/m 2,6 km/h (1 Bft)
24.08.2013 14:28 21,9 C 22,8 C 73 % 1010,7 hPa 0,0 l/m 0 min 0 min 1,5 UV-I 290 W/m 2,6 km/h (1 Bft)
24.08.2013 14:30 21,9 C 22,8 C 72 % 1010,7 hPa 0,0 l/m 0 min 0 min 1,4 UV-I 265 W/m 7,7 km/h (2 Bft)
24.08.2013 14:32 21,9 C 22,2 C 72 % 1010,8 hPa 0,0 l/m 0 min 0 min 1,3 UV-I 223 W/m 10,3 km/h (2 Bft)
24.08.2013 14:34 21,8 C 22,2 C 73 % 1010,9 hPa 0,0 l/m 0 min 0 min 1,0 UV-I 193 W/m 15,4 km/h (3 Bft)
24.08.2013 14:36 21,7 C 21,7 C 73 % 1010,8 hPa 0,0 l/m 0 min 0 min 0,8 UV-I 171 W/m 10,3 km/h (2 Bft)
24.08.2013 14:38 21,6 C 21,7 C 73 % 1010,9 hPa 0,0 l/m 0 min 0 min 0,7 UV-I 151 W/m 7,7 km/h (2 Bft)
24.08.2013 14:40 21,4 C 21,1 C 73 % 1010,8 hPa 0,0 l/m 0 min 0 min 0,5 UV-I 135 W/m 7,7 km/h (2 Bft)
24.08.2013 14:42 21,3 C 21,1 C 74 % 1010,8 hPa 0,0 l/m 0 min 0 min 0,0 UV-I 118 W/m 0,0 km/h (0 Bft)
24.08.2013 14:44 21,2 C 20,6 C 74 % 1010,9 hPa 0,0 l/m 0 min 0 min 0,0 UV-I 104 W/m 2,6 km/h (1 Bft)
24.08.2013 14:46 21,2 C 20,6 C 75 % 1010,9 hPa 0,0 l/m 0 min 0 min 0,0 UV-I 104 W/m 5,1 km/h (1 Bft)
24.08.2013 14:48 21,1 C 20,6 C 75 % 1010,9 hPa 0,0 l/m 0 min 0 min 0,0 UV-I 105 W/m 12,9 km/h (3 Bft)
24.08.2013 14:50 21,0 C 20,6 C 76 % 1010,9 hPa 0,0 l/m 0 min 0 min 0,0 UV-I 102 W/m 5,1 km/h (1 Bft)
24.08.2013 14:52 20,9 C 20,0 C 77 % 1011,0 hPa 0,0 l/m 0 min 0 min 0,0 UV-I 93 W/m 2,6 km/h (1 Bft)
24.08.2013 14:54 20,8 C 20,0 C 78 % 1011,0 hPa 0,0 l/m 0 min 0 min 0,0 UV-I 79 W/m 2,6 km/h (1 Bft)
24.08.2013 14:56 20,7 C 20,0 C 78 % 1011,1 hPa 0,0 l/m 0 min 0 min 0,0 UV-I 58 W/m 2,6 km/h (1 Bft)
24.08.2013 14:58 20,7 C 19,4 C 79 % 1011,1 hPa 0,0 l/m 0 min 0 min 0,0 UV-I 46 W/m 0,0 km/h (0 Bft)
24.08.2013 15:00 20,6 C 19,4 C 79 % 1011,1 hPa 0,0 l/m 0 min 2 min 0,0 UV-I 42 W/m 5,1 km/h (1 Bft)
24.08.2013 15:02 20,4 C 18,9 C 80 % 1011,2 hPa 0,0 l/m 0 min 2 min 0,0 UV-I 47 W/m 5,1 km/h (1 Bft)
24.08.2013 15:06 20,1 C 18,3 C 82 % 1011,3 hPa 0,0 l/m 0 min 2 min 0,0 UV-I 37 W/m 5,1 km/h (1 Bft)
24.08.2013 15:08 19,9 C 18,3 C 83 % 1011,3 hPa 0,0 l/m 0 min 2 min 0,0 UV-I 30 W/m 0,0 km/h (0 Bft)
24.08.2013 15:10 19,7 C 17,8 C 84 % 1011,2 hPa 0,0 l/m 0 min 2 min 0,0 UV-I 46 W/m 10,3 km/h (2 Bft)
24.08.2013 15:12 19,5 C 17,2 C 84 % 1011,1 hPa 0,2 l/m 0 min 2 min 0,0 UV-I 58 W/m 10,3 km/h (2 Bft)
24.08.2013 15:14 19,2 C 16,7 C 85 % 1011,1 hPa 0,4 l/m 0 min 2 min 0,0 UV-I 56 W/m 10,3 km/h (2 Bft)
24.08.2013 15:16 18,8 C 16,1 C 86 % 1011,2 hPa 0,2 l/m 0 min 2 min 0,0 UV-I 53 W/m 10,3 km/h (2 Bft)
24.08.2013 15:18 18,5 C 16,1 C 87 % 1011,1 hPa 0,0 l/m 0 min 2 min 0,0 UV-I 53 W/m 18,0 km/h (3 Bft)
24.08.2013 15:20 18,2 C 16,1 C 87 % 1011,0 hPa 0,0 l/m 0 min 2 min 0,0 UV-I 54 W/m 2,6 km/h (1 Bft)
24.08.2013 15:22 17,9 C 16,1 C 89 % 1010,8 hPa 0,0 l/m 0 min 2 min 0,0 UV-I 58 W/m 0,0 km/h (0 Bft)
24.08.2013 15:24 17,7 C 16,1 C 90 % 1010,8 hPa 0,2 l/m 0 min 2 min 0,0 UV-I 60 W/m 0,0 km/h (0 Bft)
24.08.2013 15:26 17,6 C 16,1 C 90 % 1010,5 hPa 0,0 l/m 0 min 2 min 0,0 UV-I 63 W/m 2,6 km/h (1 Bft)
24.08.2013 15:28 17,4 C 16,1 C 90 % 1010,6 hPa 0,0 l/m 0 min 2 min 0,0 UV-I 69 W/m 2,6 km/h (1 Bft)
24.08.2013 15:30 17,3 C 15,6 C 91 % 1010,7 hPa 0,0 l/m 0 min 2 min 0,0 UV-I 77 W/m 2,6 km/h (1 Bft)
24.08.2013 15:32 17,3 C 15,6 C 91 % 1010,7 hPa 0,0 l/m 0 min 2 min 0,0 UV-I 83 W/m 2,6 km/h (1 Bft)
24.08.2013 15:34 17,2 C 15,6 C 92 % 1010,9 hPa 0,2 l/m 0 min 2 min 0,0 UV-I 90 W/m 2,6 km/h (1 Bft)
24.08.2013 15:36 17,2 C 15,6 C 92 % 1011,0 hPa 0,0 l/m 0 min 2 min 0,0 UV-I 95 W/m 2,6 km/h (1 Bft)
24.08.2013 15:38 17,2 C 15,6 C 92 % 1011,0 hPa 0,0 l/m 0 min 2 min 0,0 UV-I 100 W/m 0,0 km/h (0 Bft)
24.08.2013 15:40 17,1 C 15,6 C 93 % 1011,0 hPa 0,0 l/m 0 min 2 min 0,0 UV-I 104 W/m 0,0 km/h (0 Bft)
24.08.2013 15:42 17,2 C 16,1 C 93 % 1010,9 hPa 0,0 l/m 0 min 2 min 0,0 UV-I 111 W/m 0,0 km/h (0 Bft)
24.08.2013 15:44 17,2 C 16,1 C 93 % 1010,9 hPa 0,0 l/m 0 min 2 min 0,0 UV-I 114 W/m 2,6 km/h (1 Bft)
24.08.2013 15:46 17,2 C 16,1 C 94 % 1010,9 hPa 0,0 l/m 0 min 2 min 0,0 UV-I 120 W/m 0,0 km/h (0 Bft)
24.08.2013 15:48 17,2 C 16,1 C 94 % 1010,9 hPa 0,0 l/m 0 min 2 min 0,0 UV-I 127 W/m 0,0 km/h (0 Bft)
24.08.2013 15:50 17,2 C 16,1 C 94 % 1010,8 hPa 0,0 l/m 0 min 2 min 0,0 UV-I 132 W/m 0,0 km/h (0 Bft)
24.08.2013 15:52 17,2 C 16,1 C 94 % 1010,8 hPa 0,0 l/m 0 min 2 min 0,0 UV-I 142 W/m 0,0 km/h (0 Bft)
24.08.2013 15:54 17,3 C 16,1 C 94 % 1010,7 hPa 0,0 l/m 0 min 2 min 0,0 UV-I 206 W/m 0,0 km/h (0 Bft)
24.08.2013 15:56 17,6 C 16,7 C 94 % 1010,8 hPa 0,0 l/m 0 min 2 min 0,5 UV-I 221 W/m 0,0 km/h (0 Bft)
24.08.2013 15:58 17,7 C 16,7 C 94 % 1010,8 hPa 0,0 l/m 0 min 2 min 0,5 UV-I 197 W/m 0,0 km/h (0 Bft)
24.08.2013 16:00 17,7 C 16,7 C 94 % 1010,7 hPa 0,0 l/m 0 min 2 min 0,5 UV-I 183 W/m 0,0 km/h (0 Bft)
24.08.2013 16:02 17,6 C 16,7 C 94 % 1010,6 hPa 0,0 l/m 0 min 2 min 0,5 UV-I 178 W/m 0,0 km/h (0 Bft)
24.08.2013 16:06 17,6 C 16,7 C 93 % 1010,7 hPa 0,0 l/m 0 min 0 min 0,0 UV-I 130 W/m 0,0 km/h (0 Bft)
24.08.2013 16:08 17,7 C 16,7 C 93 % 1010,9 hPa 0,0 l/m 0 min 0 min 0,0 UV-I 144 W/m 0,0 km/h (0 Bft)
24.08.2013 16:10 17,8 C 16,7 C 94 % 1011,0 hPa 0,0 l/m 0 min 0 min 0,0 UV-I 167 W/m 0,0 km/h (0 Bft)
24.08.2013 16:12 17,9 C 17,2 C 94 % 1011,0 hPa 0,0 l/m 0 min 0 min 0,5 UV-I 185 W/m 0,0 km/h (0 Bft)
24.08.2013 16:14 17,9 C 16,7 C 94 % 1011,0 hPa 0,0 l/m 0 min 0 min 0,6 UV-I 202 W/m 0,0 km/h (0 Bft)
24.08.2013 16:16 17,9 C 17,2 C 94 % 1010,9 hPa 0,0 l/m 0 min 0 min 0,7 UV-I 239 W/m 0,0 km/h (0 Bft)
24.08.2013 16:18 18,1 C 17,2 C 94 % 1010,9 hPa 0,0 l/m 0 min 0 min 0,8 UV-I 237 W/m 0,0 km/h (0 Bft)
24.08.2013 16:20 18,2 C 17,2 C 94 % 1010,9 hPa 0,0 l/m 0 min 0 min 0,6 UV-I 213 W/m 0,0 km/h (0 Bft)
24.08.2013 16:22 18,1 C 17,2 C 94 % 1010,8 hPa 0,0 l/m 0 min 0 min 0,5 UV-I 190 W/m 0,0 km/h (0 Bft)
24.08.2013 16:24 18,2 C 17,2 C 94 % 1010,7 hPa 0,0 l/m 0 min 0 min 0,0 UV-I 167 W/m 0,0 km/h (0 Bft)
24.08.2013 16:26 18,2 C 16,7 C 94 % 1010,8 hPa 0,0 l/m 0 min 0 min 0,0 UV-I 153 W/m 0,0 km/h (0 Bft)
24.08.2013 16:28 18,2 C 17,2 C 93 % 1010,7 hPa 0,0 l/m 0 min 0 min 0,0 UV-I 139 W/m 0,0 km/h (0 Bft)
24.08.2013 16:30 18,3 C 16,7 C 93 % 1010,6 hPa 0,0 l/m 0 min 0 min 0,0 UV-I 120 W/m 0,0 km/h (0 Bft)
24.08.2013 16:32 18,3 C 16,7 C 92 % 1010,6 hPa 0,0 l/m 0 min 0 min 0,0 UV-I 114 W/m 0,0 km/h (0 Bft)
24.08.2013 16:34 18,3 C 16,7 C 91 % 1010,6 hPa 0,0 l/m 0 min 0 min 0,0 UV-I 121 W/m 0,0 km/h (0 Bft)
24.08.2013 16:36 18,3 C 16,7 C 91 % 1010,5 hPa 0,0 l/m 0 min 0 min 0,0 UV-I 127 W/m 0,0 km/h (0 Bft)
24.08.2013 16:38 18,4 C 16,7 C 92 % 1010,5 hPa 0,0 l/m 0 min 0 min 0,0 UV-I 132 W/m 0,0 km/h (0 Bft)
24.08.2013 16:40 18,4 C 17,2 C 92 % 1010,5 hPa 0,0 l/m 0 min 0 min 0,0 UV-I 155 W/m 0,0 km/h (0 Bft)
24.08.2013 16:42 18,4 C 17,2 C 92 % 1010,5 hPa 0,0 l/m 0 min 0 min 0,0 UV-I 158 W/m 0,0 km/h (0 Bft)
24.08.2013 16:44 18,7 C 17,2 C 93 % 1010,4 hPa 0,0 l/m 0 min 0 min 0,0 UV-I 156 W/m 0,0 km/h (0 Bft)
24.08.2013 16:46 18,6 C 17,2 C 93 % 1010,4 hPa 0,0 l/m 0 min 0 min 0,0 UV-I 151 W/m 0,0 km/h (0 Bft)
24.08.2013 16:48 18,6 C 17,2 C 92 % 1010,4 hPa 0,0 l/m 0 min 0 min 0,0 UV-I 146 W/m 0,0 km/h (0 Bft)
24.08.2013 16:50 18,6 C 17,2 C 91 % 1010,4 hPa 0,0 l/m 0 min 0 min 0,0 UV-I 139 W/m 0,0 km/h (0 Bft)
24.08.2013 16:52 18,7 C 17,2 C 91 % 1010,4 hPa 0,0 l/m 0 min 0 min 0,0 UV-I 125 W/m 0,0 km/h (0 Bft)
24.08.2013 16:54 18,7 C 17,2 C 91 % 1010,5 hPa 0,0 l/m 0 min 0 min 0,0 UV-I 114 W/m 0,0 km/h (0 Bft)
24.08.2013 16:56 18,7 C 17,2 C 92 % 1010,6 hPa 0,0 l/m 0 min 0 min 0,0 UV-I 105 W/m 0,0 km/h (0 Bft)
24.08.2013 16:58 18,7 C 17,2 C 91 % 1010,6 hPa 0,0 l/m 0 min 0 min 0,0 UV-I 95 W/m 2,6 km/h (1 Bft)
24.08.2013 17:00 18,7 C 17,2 C 91 % 1010,6 hPa 0,0 l/m 0 min 0 min 0,0 UV-I 90 W/m 0,0 km/h (0 Bft)
24.08.2013 17:02 18,7 C 17,2 C 92 % 1010,5 hPa 0,0 l/m 0 min 0 min 0,0 UV-I 88 W/m 0,0 km/h (0 Bft)
24.08.2013 17:05 18,6 C 16,7 C 92 % 1010,4 hPa 0,0 l/m 0 min 0 min 0,0 UV-I 90 W/m 0,0 km/h (0 Bft)
24.08.2013 17:06 18,6 C 16,7 C 92 % 1010,4 hPa 0,0 l/m 0 min 0 min 0,0 UV-I 91 W/m 0,0 km/h (0 Bft)
24.08.2013 17:08 18,6 C 16,7 C 92 % 1010,4 hPa 0,0 l/m 0 min 0 min 0,0 UV-I 97 W/m 0,0 km/h (0 Bft)
24.08.2013 17:10 18,6 C 17,2 C 92 % 1010,5 hPa 0,0 l/m 0 min 0 min 0,0 UV-I 105 W/m 0,0 km/h (0 Bft)
24.08.2013 17:12 18,6 C 17,2 C 92 % 1010,4 hPa 0,0 l/m 0 min 0 min 0,0 UV-I 111 W/m 0,0 km/h (0 Bft)
24.08.2013 17:14 18,5 C 16,7 C 92 % 1010,3 hPa 0,0 l/m 0 min 0 min 0,0 UV-I 116 W/m 0,0 km/h (0 Bft)
24.08.2013 17:16 18,6 C 17,2 C 92 % 1010,4 hPa 0,0 l/m 0 min 0 min 0,0 UV-I 121 W/m 0,0 km/h (0 Bft)
24.08.2013 17:18 18,6 C 17,2 C 92 % 1010,4 hPa 0,0 l/m 0 min 0 min 0,0 UV-I 125 W/m 0,0 km/h (0 Bft)
24.08.2013 17:20 18,6 C 17,2 C 92 % 1010,3 hPa 0,0 l/m 0 min 0 min 0,0 UV-I 130 W/m 0,0 km/h (0 Bft)
24.08.2013 17:22 18,7 C 17,2 C 92 % 1010,4 hPa 0,0 l/m 0 min 0 min 0,0 UV-I 134 W/m 2,6 km/h (1 Bft)
24.08.2013 17:24 18,8 C 17,2 C 92 % 1010,3 hPa 0,0 l/m 0 min 0 min 0,0 UV-I 132 W/m 2,6 km/h (1 Bft)
24.08.2013 17:26 18,8 C 17,2 C 92 % 1010,3 hPa 0,0 l/m 0 min 0 min 0,0 UV-I 128 W/m 0,0 km/h (0 Bft)
24.08.2013 17:28 18,9 C 17,2 C 92 % 1010,4 hPa 0,0 l/m 0 min 0 min 0,0 UV-I 123 W/m 5,1 km/h (1 Bft)
24.08.2013 17:30 18,8 C 17,2 C 92 % 1010,4 hPa 0,0 l/m 0 min 2 min 0,0 UV-I 118 W/m 2,6 km/h (1 Bft)
24.08.2013 17:32 18,9 C 17,2 C 92 % 1010,5 hPa 0,0 l/m 0 min 0 min 0,0 UV-I 114 W/m 7,7 km/h (2 Bft)
24.08.2013 17:34 18,9 C 17,2 C 92 % 1010,5 hPa 0,0 l/m 0 min 2 min 0,0 UV-I 114 W/m 5,1 km/h (1 Bft)
24.08.2013 17:36 18,9 C 17,2 C 92 % 1010,5 hPa 0,0 l/m 0 min 2 min 0,0 UV-I 118 W/m 2,6 km/h (1 Bft)
24.08.2013 17:38 18,9 C 17,2 C 93 % 1010,4 hPa 0,0 l/m 0 min 0 min 0,0 UV-I 120 W/m 0,0 km/h (0 Bft)
24.08.2013 17:40 18,9 C 17,2 C 93 % 1010,5 hPa 0,0 l/m 0 min 0 min 0,0 UV-I 114 W/m 2,6 km/h (1 Bft)
24.08.2013 17:42 18,9 C 17,2 C 93 % 1010,5 hPa 0,0 l/m 0 min 0 min 0,0 UV-I 105 W/m 0,0 km/h (0 Bft)
24.08.2013 17:44 18,9 C 17,2 C 93 % 1010,5 hPa 0,0 l/m 0 min 0 min 0,0 UV-I 100 W/m 0,0 km/h (0 Bft)
24.08.2013 17:46 18,9 C 17,2 C 93 % 1010,5 hPa 0,0 l/m 0 min 0 min 0,0 UV-I 86 W/m 7,7 km/h (2 Bft)
24.08.2013 17:48 18,8 C 17,2 C 92 % 1010,5 hPa 0,0 l/m 0 min 0 min 0,0 UV-I 74 W/m 7,7 km/h (2 Bft)
24.08.2013 17:50 18,8 C 17,2 C 92 % 1010,5 hPa 0,0 l/m 0 min 0 min 0,0 UV-I 62 W/m 7,7 km/h (2 Bft)
24.08.2013 17:52 18,7 C 17,2 C 92 % 1010,5 hPa 0,0 l/m 0 min 0 min 0,0 UV-I 51 W/m 0,0 km/h (0 Bft)
24.08.2013 17:54 18,7 C 17,2 C 92 % 1010,5 hPa 0,0 l/m 0 min 0 min 0,0 UV-I 47 W/m 0,0 km/h (0 Bft)
24.08.2013 17:56 18,7 C 16,7 C 92 % 1010,5 hPa 0,0 l/m 0 min 0 min 0,0 UV-I 46 W/m 0,0 km/h (0 Bft)
24.08.2013 17:58 18,7 C 16,7 C 92 % 1010,5 hPa 0,0 l/m 0 min 0 min 0,0 UV-I 53 W/m 0,0 km/h (0 Bft)
24.08.2013 18:00 18,7 C 16,7 C 92 % 1010,5 hPa 0,0 l/m 0 min 0 min 0,0 UV-I 56 W/m 2,6 km/h (1 Bft)
24.08.2013 18:02 18,6 C 17,2 C 92 % 1010,5 hPa 0,0 l/m 0 min 0 min 0,0 UV-I 58 W/m 0,0 km/h (0 Bft)
24.08.2013 18:06 18,6 C 17,2 C 93 % 1010,5 hPa 0,0 l/m 0 min 0 min 0,0 UV-I 54 W/m 0,0 km/h (0 Bft)
24.08.2013 18:08 18,6 C 17,2 C 93 % 1010,5 hPa 0,0 l/m 0 min 0 min 0,0 UV-I 51 W/m 0,0 km/h (0 Bft)
24.08.2013 18:10 18,7 C 17,2 C 93 % 1010,5 hPa 0,0 l/m 0 min 0 min 0,0 UV-I 49 W/m 0,0 km/h (0 Bft)
24.08.2013 18:12 18,6 C 17,2 C 93 % 1010,5 hPa 0,0 l/m 0 min 0 min 0,0 UV-I 47 W/m 0,0 km/h (0 Bft)
24.08.2013 18:14 18,6 C 17,2 C 93 % 1010,6 hPa 0,0 l/m 0 min 0 min 0,0 UV-I 54 W/m 0,0 km/h (0 Bft)
24.08.2013 18:16 18,6 C 17,2 C 93 % 1010,6 hPa 0,0 l/m 0 min 0 min 0,0 UV-I 62 W/m 0,0 km/h (0 Bft)
24.08.2013 18:18 18,6 C 17,2 C 93 % 1010,5 hPa 0,0 l/m 0 min 0 min 0,0 UV-I 67 W/m 0,0 km/h (0 Bft)
24.08.2013 18:20 18,6 C 17,2 C 93 % 1010,5 hPa 0,0 l/m 0 min 0 min 0,0 UV-I 65 W/m 0,0 km/h (0 Bft)
24.08.2013 18:22 18,6 C 17,2 C 93 % 1010,5 hPa 0,0 l/m 0 min 0 min 0,0 UV-I 62 W/m 0,0 km/h (0 Bft)
24.08.2013 18:24 18,6 C 17,2 C 93 % 1010,5 hPa 0,0 l/m 0 min 0 min 0,0 UV-I 58 W/m 0,0 km/h (0 Bft)
24.08.2013 18:26 18,6 C 17,2 C 93 % 1010,5 hPa 0,0 l/m 0 min 0 min 0,0 UV-I 54 W/m 0,0 km/h (0 Bft)
24.08.2013 18:28 18,6 C 17,2 C 93 % 1010,5 hPa 0,0 l/m 0 min 0 min 0,0 UV-I 53 W/m 0,0 km/h (0 Bft)
24.08.2013 18:30 18,7 C 17,2 C 93 % 1010,5 hPa 0,0 l/m 0 min 0 min 0,0 UV-I 53 W/m 0,0 km/h (0 Bft)
24.08.2013 18:32 18,6 C 17,2 C 93 % 1010,5 hPa 0,0 l/m 0 min 0 min 0,0 UV-I 53 W/m 0,0 km/h (0 Bft)
24.08.2013 18:34 18,7 C 17,2 C 93 % 1010,4 hPa 0,0 l/m 0 min 0 min 0,0 UV-I 51 W/m 0,0 km/h (0 Bft)
24.08.2013 18:36 18,7 C 17,2 C 93 % 1010,4 hPa 0,0 l/m 0 min 0 min 0,0 UV-I 49 W/m 0,0 km/h (0 Bft)
24.08.2013 18:38 18,6 C 17,2 C 93 % 1010,4 hPa 0,0 l/m 0 min 0 min 0,0 UV-I 44 W/m 0,0 km/h (0 Bft)
24.08.2013 18:40 18,6 C 17,2 C 93 % 1010,4 hPa 0,0 l/m 0 min 2 min 0,0 UV-I 40 W/m 0,0 km/h (0 Bft)
24.08.2013 18:42 18,6 C 17,2 C 93 % 1010,5 hPa 0,0 l/m 0 min 2 min 0,0 UV-I 37 W/m 0,0 km/h (0 Bft)
24.08.2013 18:44 18,6 C 17,2 C 93 % 1010,4 hPa 0,0 l/m 0 min 0 min 0,0 UV-I 35 W/m 0,0 km/h (0 Bft)
24.08.2013 18:46 18,6 C 17,2 C 93 % 1010,4 hPa 0,0 l/m 0 min 0 min 0,0 UV-I 37 W/m 0,0 km/h (0 Bft)
24.08.2013 18:48 18,6 C 17,2 C 93 % 1010,4 hPa 0,0 l/m 0 min 0 min 0,0 UV-I 39 W/m 0,0 km/h (0 Bft)
24.08.2013 18:50 18,6 C 17,2 C 93 % 1010,4 hPa 0,0 l/m 0 min 2 min 0,0 UV-I 40 W/m 0,0 km/h (0 Bft)
24.08.2013 18:52 18,6 C 16,7 C 93 % 1010,4 hPa 0,0 l/m 0 min 2 min 0,0 UV-I 42 W/m 0,0 km/h (0 Bft)
24.08.2013 18:54 18,6 C 16,7 C 93 % 1010,5 hPa 0,0 l/m 0 min 2 min 0,0 UV-I 40 W/m 0,0 km/h (0 Bft)
24.08.2013 18:56 18,6 C 16,7 C 94 % 1010,5 hPa 0,2 l/m 0 min 2 min 0,0 UV-I 37 W/m 0,0 km/h (0 Bft)
24.08.2013 18:58 18,6 C 16,7 C 94 % 1010,5 hPa 0,0 l/m 0 min 2 min 0,0 UV-I 33 W/m 0,0 km/h (0 Bft)
24.08.2013 19:00 18,6 C 16,7 C 94 % 1010,5 hPa 0,0 l/m 0 min 2 min 0,0 UV-I 32 W/m 0,0 km/h (0 Bft)
24.08.2013 19:02 18,6 C 16,7 C 94 % 1010,5 hPa 0,0 l/m 0 min 2 min 0,0 UV-I 32 W/m 0,0 km/h (0 Bft)
24.08.2013 19:05 18,4 C 16,7 C 94 % 1010,4 hPa 0,0 l/m 0 min 2 min 0,0 UV-I 30 W/m 0,0 km/h (0 Bft)
24.08.2013 19:06 18,4 C 16,7 C 94 % 1010,4 hPa 0,0 l/m 0 min 1 min 0,0 UV-I 28 W/m 0,0 km/h (0 Bft)
24.08.2013 19:08 18,4 C 16,7 C 94 % 1010,4 hPa 0,0 l/m 0 min 2 min 0,0 UV-I 25 W/m 0,0 km/h (0 Bft)
24.08.2013 19:10 18,3 C 16,7 C 94 % 1010,4 hPa 0,0 l/m 0 min 2 min 0,0 UV-I 23 W/m 0,0 km/h (0 Bft)
24.08.2013 19:12 18,3 C 16,7 C 94 % 1010,5 hPa 0,0 l/m 0 min 2 min 0,0 UV-I 23 W/m 0,0 km/h (0 Bft)
24.08.2013 19:14 18,3 C 16,7 C 94 % 1010,5 hPa 0,2 l/m 0 min 2 min 0,0 UV-I 23 W/m 0,0 km/h (0 Bft)
24.08.2013 19:16 18,3 C 16,7 C 94 % 1010,4 hPa 0,0 l/m 0 min 2 min 0,0 UV-I 25 W/m 0,0 km/h (0 Bft)
24.08.2013 19:18 18,3 C 16,7 C 94 % 1010,4 hPa 0,0 l/m 0 min 2 min 0,0 UV-I 25 W/m 0,0 km/h (0 Bft)
24.08.2013 19:20 18,2 C 16,7 C 94 % 1010,4 hPa 0,0 l/m 0 min 2 min 0,0 UV-I 21 W/m 0,0 km/h (0 Bft)
24.08.2013 19:22 18,2 C 16,7 C 94 % 1010,4 hPa 0,0 l/m 0 min 2 min 0,0 UV-I 19 W/m 0,0 km/h (0 Bft)
24.08.2013 19:24 18,2 C 16,7 C 94 % 1010,4 hPa 0,0 l/m 0 min 2 min 0,0 UV-I 16 W/m 0,0 km/h (0 Bft)
24.08.2013 19:26 18,2 C 16,7 C 94 % 1010,3 hPa 0,0 l/m 0 min 0 min 0,0 UV-I 16 W/m 0,0 km/h (0 Bft)
24.08.2013 19:28 18,1 C 16,7 C 95 % 1010,4 hPa 0,0 l/m 0 min 2 min 0,0 UV-I 16 W/m 0,0 km/h (0 Bft)
24.08.2013 19:30 18,1 C 16,7 C 95 % 1010,4 hPa 0,0 l/m 0 min 2 min 0,0 UV-I 18 W/m 0,0 km/h (0 Bft)
24.08.2013 19:32 18,1 C 16,7 C 95 % 1010,4 hPa 0,0 l/m 0 min 2 min 0,0 UV-I 18 W/m 0,0 km/h (0 Bft)
24.08.2013 19:34 18,1 C 16,7 C 95 % 1010,4 hPa 0,0 l/m 0 min 2 min 0,0 UV-I 18 W/m 0,0 km/h (0 Bft)
24.08.2013 19:36 18,1 C 16,7 C 95 % 1010,4 hPa 0,0 l/m 0 min 2 min 0,0 UV-I 18 W/m 0,0 km/h (0 Bft)
24.08.2013 19:38 18,1 C 16,7 C 95 % 1010,4 hPa 0,0 l/m 0 min 2 min 0,0 UV-I 18 W/m 0,0 km/h (0 Bft)
24.08.2013 19:40 18,1 C 16,7 C 95 % 1010,4 hPa 0,0 l/m 0 min 2 min 0,0 UV-I 18 W/m 0,0 km/h (0 Bft)
24.08.2013 19:42 18,1 C 16,7 C 95 % 1010,4 hPa 0,0 l/m 0 min 2 min 0,0 UV-I 16 W/m 0,0 km/h (0 Bft)
24.08.2013 19:44 18,0 C 16,7 C 96 % 1010,4 hPa 0,2 l/m 0 min 2 min 0,0 UV-I 16 W/m 0,0 km/h (0 Bft)
24.08.2013 19:46 18,1 C 16,7 C 96 % 1010,5 hPa 0,0 l/m 0 min 2 min 0,0 UV-I 16 W/m 0,0 km/h (0 Bft)
24.08.2013 19:48 18,0 C 16,7 C 96 % 1010,4 hPa 0,0 l/m 0 min 2 min 0,0 UV-I 16 W/m 0,0 km/h (0 Bft)
24.08.2013 19:50 18,0 C 16,7 C 96 % 1010,4 hPa 0,0 l/m 0 min 2 min 0,0 UV-I 16 W/m 0,0 km/h (0 Bft)
24.08.2013 19:52 18,0 C 16,7 C 96 % 1010,4 hPa 0,0 l/m 0 min 2 min 0,0 UV-I 14 W/m 0,0 km/h (0 Bft)
24.08.2013 19:54 17,9 C 16,7 C 96 % 1010,4 hPa 0,2 l/m 0 min 2 min 0,0 UV-I 12 W/m 0,0 km/h (0 Bft)
24.08.2013 19:56 17,9 C 16,7 C 96 % 1010,3 hPa 0,0 l/m 0 min 2 min 0,0 UV-I 12 W/m 0,0 km/h (0 Bft)
24.08.2013 19:58 17,9 C 16,7 C 96 % 1010,3 hPa 0,0 l/m 0 min 2 min 0,0 UV-I 11 W/m 0,0 km/h (0 Bft)
24.08.2013 20:00 17,9 C 16,1 C 96 % 1010,4 hPa 0,0 l/m 0 min 2 min 0,0 UV-I 11 W/m 0,0 km/h (0 Bft)
24.08.2013 20:02 17,9 C 16,1 C 96 % 1010,4 hPa 0,0 l/m 0 min 2 min 0,0 UV-I 9 W/m 0,0 km/h (0 Bft)
24.08.2013 20:06 17,8 C 16,1 C 96 % 1010,4 hPa 0,0 l/m 0 min 2 min 0,0 UV-I 9 W/m 0,0 km/h (0 Bft)
24.08.2013 20:08 17,8 C 16,1 C 96 % 1010,4 hPa 0,0 l/m 0 min 2 min 0,0 UV-I 7 W/m 0,0 km/h (0 Bft)
24.08.2013 20:10 17,8 C 16,1 C 96 % 1010,4 hPa 0,2 l/m 0 min 2 min 0,0 UV-I 7 W/m 0,0 km/h (0 Bft)
24.08.2013 20:12 17,8 C 16,1 C 96 % 1010,4 hPa 0,0 l/m 0 min 2 min 0,0 UV-I 7 W/m 0,0 km/h (0 Bft)
24.08.2013 20:14 17,8 C 16,1 C 96 % 1010,4 hPa 0,0 l/m 0 min 2 min 0,0 UV-I 5 W/m 0,0 km/h (0 Bft)
24.08.2013 20:16 17,8 C 16,1 C 96 % 1010,4 hPa 0,0 l/m 0 min 2 min 0,0 UV-I 5 W/m 0,0 km/h (0 Bft)
24.08.2013 20:18 17,8 C 16,1 C 96 % 1010,3 hPa 0,0 l/m 0 min 2 min 0,0 UV-I 0 W/m 0,0 km/h (0 Bft)
24.08.2013 20:20 17,8 C 16,1 C 96 % 1010,4 hPa 0,2 l/m 0 min 2 min 0,0 UV-I 0 W/m 0,0 km/h (0 Bft)
24.08.2013 20:22 17,8 C 16,1 C 96 % 1010,3 hPa 0,0 l/m 0 min 2 min 0,0 UV-I 0 W/m 0,0 km/h (0 Bft)
24.08.2013 20:24 17,8 C 16,1 C 96 % 1010,3 hPa 0,0 l/m 0 min 2 min 0,0 UV-I 0 W/m 0,0 km/h (0 Bft)
24.08.2013 20:26 17,8 C 16,1 C 96 % 1010,3 hPa 0,0 l/m 0 min 2 min 0,0 UV-I 0 W/m 0,0 km/h (0 Bft)
24.08.2013 20:28 17,8 C 16,1 C 96 % 1010,3 hPa 0,0 l/m 0 min 2 min 0,0 UV-I 0 W/m 0,0 km/h (0 Bft)
24.08.2013 20:30 17,7 C 16,1 C 97 % 1010,3 hPa 0,0 l/m 0 min 2 min 0,0 UV-I 0 W/m 0,0 km/h (0 Bft)
24.08.2013 20:32 17,7 C 16,1 C 97 % 1010,3 hPa 0,0 l/m 0 min 2 min 0,0 UV-I 0 W/m 0,0 km/h (0 Bft)
24.08.2013 20:34 17,7 C 16,1 C 97 % 1010,3 hPa 0,2 l/m 0 min 2 min 0,0 UV-I 0 W/m 0,0 km/h (0 Bft)
24.08.2013 20:36 17,7 C 16,1 C 97 % 1010,3 hPa 0,0 l/m 0 min 2 min 0,0 UV-I 0 W/m 0,0 km/h (0 Bft)
24.08.2013 20:38 17,7 C 16,1 C 97 % 1010,4 hPa 0,0 l/m 0 min 2 min 0,0 UV-I 0 W/m 0,0 km/h (0 Bft)
24.08.2013 20:40 17,7 C 16,1 C 97 % 1010,4 hPa 0,0 l/m 0 min 2 min 0,0 UV-I 0 W/m 0,0 km/h (0 Bft)
24.08.2013 20:42 17,7 C 16,1 C 97 % 1010,4 hPa 0,0 l/m 0 min 2 min 0,0 UV-I 0 W/m 0,0 km/h (0 Bft)
24.08.2013 20:44 17,7 C 16,1 C 97 % 1010,3 hPa 0,0 l/m 0 min 2 min 0,0 UV-I 0 W/m 0,0 km/h (0 Bft)
24.08.2013 20:46 17,7 C 16,1 C 97 % 1010,3 hPa 0,0 l/m 0 min 2 min 0,0 UV-I 0 W/m 0,0 km/h (0 Bft)
24.08.2013 20:48 17,7 C 16,1 C 97 % 1010,3 hPa 0,0 l/m 0 min 2 min 0,0 UV-I 0 W/m 0,0 km/h (0 Bft)
24.08.2013 20:50 17,7 C 16,1 C 97 % 1010,3 hPa 0,0 l/m 0 min 0 min 0,0 UV-I 0 W/m 0,0 km/h (0 Bft)
24.08.2013 20:52 17,7 C 16,1 C 97 % 1010,3 hPa 0,0 l/m 0 min 0 min 0,0 UV-I 0 W/m 0,0 km/h (0 Bft)
24.08.2013 20:54 17,6 C 16,1 C 97 % 1010,3 hPa 0,0 l/m 0 min 0 min 0,0 UV-I 0 W/m 0,0 km/h (0 Bft)
24.08.2013 20:56 17,6 C 16,1 C 97 % 1010,3 hPa 0,0 l/m 0 min 0 min 0,0 UV-I 0 W/m 0,0 km/h (0 Bft)
24.08.2013 20:58 17,6 C 16,1 C 97 % 1010,2 hPa 0,0 l/m 0 min 0 min 0,0 UV-I 0 W/m 0,0 km/h (0 Bft)
24.08.2013 21:00 17,6 C 16,1 C 97 % 1010,2 hPa 0,0 l/m 0 min 0 min 0,0 UV-I 0 W/m 0,0 km/h (0 Bft)
24.08.2013 21:02 17,6 C 16,1 C 97 % 1010,2 hPa 0,0 l/m 0 min 0 min 0,0 UV-I 0 W/m 0,0 km/h (0 Bft)
24.08.2013 21:05 17,6 C 16,1 C 97 % 1010,3 hPa 0,0 l/m 0 min 0 min 0,0 UV-I 0 W/m 0,0 km/h (0 Bft)
24.08.2013 21:06 17,6 C 16,1 C 97 % 1010,3 hPa 0,0 l/m 0 min 0 min 0,0 UV-I 0 W/m 0,0 km/h (0 Bft)
24.08.2013 21:08 17,6 C 16,1 C 97 % 1010,2 hPa 0,0 l/m 0 min 0 min 0,0 UV-I 0 W/m 0,0 km/h (0 Bft)
24.08.2013 21:10 17,6 C 16,1 C 97 % 1010,2 hPa 0,0 l/m 0 min 0 min 0,0 UV-I 0 W/m 0,0 km/h (0 Bft)
24.08.2013 21:12 17,6 C 16,1 C 97 % 1010,2 hPa 0,0 l/m 0 min 0 min 0,0 UV-I 0 W/m 0,0 km/h (0 Bft)
24.08.2013 21:14 17,6 C 16,1 C 97 % 1010,3 hPa 0,0 l/m 0 min 0 min 0,0 UV-I 0 W/m 0,0 km/h (0 Bft)
24.08.2013 21:16 17,6 C 16,1 C 97 % 1010,3 hPa 0,0 l/m 0 min 0 min 0,0 UV-I 0 W/m 0,0 km/h (0 Bft)
24.08.2013 21:18 17,6 C 16,1 C 97 % 1010,3 hPa 0,0 l/m 0 min 0 min 0,0 UV-I 0 W/m 0,0 km/h (0 Bft)
24.08.2013 21:20 17,6 C 16,1 C 97 % 1010,3 hPa 0,0 l/m 0 min 0 min 0,0 UV-I 0 W/m 0,0 km/h (0 Bft)
24.08.2013 21:22 17,6 C 16,1 C 97 % 1010,3 hPa 0,0 l/m 0 min 0 min 0,0 UV-I 0 W/m 0,0 km/h (0 Bft)
24.08.2013 21:24 17,6 C 16,1 C 97 % 1010,3 hPa 0,0 l/m 0 min 0 min 0,0 UV-I 0 W/m 0,0 km/h (0 Bft)
24.08.2013 21:26 17,6 C 16,1 C 97 % 1010,3 hPa 0,0 l/m 0 min 0 min 0,0 UV-I 0 W/m 0,0 km/h (0 Bft)
24.08.2013 21:28 17,6 C 16,1 C 97 % 1010,4 hPa 0,0 l/m 0 min 0 min 0,0 UV-I 0 W/m 0,0 km/h (0 Bft)
24.08.2013 21:30 17,6 C 16,1 C 97 % 1010,3 hPa 0,0 l/m 0 min 0 min 0,0 UV-I 0 W/m 0,0 km/h (0 Bft)
24.08.2013 21:32 17,6 C 16,1 C 98 % 1010,3 hPa 0,0 l/m 0 min 0 min 0,0 UV-I 0 W/m 0,0 km/h (0 Bft)
24.08.2013 21:34 17,5 C 16,1 C 98 % 1010,3 hPa 0,0 l/m 0 min 0 min 0,0 UV-I 0 W/m 0,0 km/h (0 Bft)
24.08.2013 21:36 17,5 C 16,1 C 98 % 1010,3 hPa 0,0 l/m 0 min 0 min 0,0 UV-I 0 W/m 0,0 km/h (0 Bft)
24.08.2013 21:38 17,4 C 16,1 C 98 % 1010,3 hPa 0,0 l/m 0 min 0 min 0,0 UV-I 0 W/m 0,0 km/h (0 Bft)
24.08.2013 21:40 17,4 C 16,1 C 98 % 1010,2 hPa 0,0 l/m 0 min 0 min 0,0 UV-I 0 W/m 0,0 km/h (0 Bft)
24.08.2013 21:42 17,4 C 16,1 C 98 % 1010,2 hPa 0,0 l/m 0 min 0 min 0,0 UV-I 0 W/m 0,0 km/h (0 Bft)
24.08.2013 21:44 17,4 C 16,1 C 98 % 1010,2 hPa 0,0 l/m 0 min 0 min 0,0 UV-I 0 W/m 0,0 km/h (0 Bft)
24.08.2013 21:46 17,3 C 15,6 C 98 % 1010,2 hPa 0,0 l/m 0 min 0 min 0,0 UV-I 0 W/m 0,0 km/h (0 Bft)
24.08.2013 21:48 17,3 C 15,6 C 97 % 1010,2 hPa 0,0 l/m 0 min 0 min 0,0 UV-I 0 W/m 0,0 km/h (0 Bft)
24.08.2013 21:50 17,3 C 15,6 C 97 % 1010,2 hPa 0,0 l/m 0 min 0 min 0,0 UV-I 0 W/m 0,0 km/h (0 Bft)
24.08.2013 21:52 17,3 C 15,6 C 97 % 1010,2 hPa 0,0 l/m 0 min 0 min 0,0 UV-I 0 W/m 0,0 km/h (0 Bft)
24.08.2013 21:54 17,3 C 15,6 C 97 % 1010,3 hPa 0,0 l/m 0 min 0 min 0,0 UV-I 0 W/m 0,0 km/h (0 Bft)
24.08.2013 21:56 17,2 C 15,6 C 97 % 1010,3 hPa 0,0 l/m 0 min 0 min 0,0 UV-I 0 W/m 0,0 km/h (0 Bft)
24.08.2013 21:58 17,2 C 15,6 C 98 % 1010,3 hPa 0,0 l/m 0 min 0 min 0,0 UV-I 0 W/m 0,0 km/h (0 Bft)
24.08.2013 22:00 17,2 C 15,6 C 98 % 1010,3 hPa 0,0 l/m 0 min 0 min 0,0 UV-I 0 W/m 0,0 km/h (0 Bft)
24.08.2013 22:02 17,2 C 15,6 C 98 % 1010,4 hPa 0,0 l/m 0 min 0 min 0,0 UV-I 0 W/m 0,0 km/h (0 Bft)
24.08.2013 22:05 17,2 C 15,6 C 98 % 1010,4 hPa 0,0 l/m 0 min 0 min 0,0 UV-I 0 W/m 0,0 km/h (0 Bft)
24.08.2013 22:06 17,2 C 15,6 C 98 % 1010,4 hPa 0,0 l/m 0 min 0 min 0,0 UV-I 0 W/m 0,0 km/h (0 Bft)
24.08.2013 22:08 17,2 C 15,6 C 98 % 1010,4 hPa 0,0 l/m 0 min 0 min 0,0 UV-I 0 W/m 0,0 km/h (0 Bft)
24.08.2013 22:10 17,2 C 15,6 C 98 % 1010,4 hPa 0,0 l/m 0 min 0 min 0,0 UV-I 0 W/m 0,0 km/h (0 Bft)
24.08.2013 22:12 17,1 C 15,6 C 98 % 1010,4 hPa 0,0 l/m 0 min 0 min 0,0 UV-I 0 W/m 0,0 km/h (0 Bft)
24.08.2013 22:14 17,1 C 15,6 C 98 % 1010,4 hPa 0,0 l/m 0 min 0 min 0,0 UV-I 0 W/m 0,0 km/h (0 Bft)
24.08.2013 22:16 17,1 C 15,6 C 98 % 1010,4 hPa 0,0 l/m 0 min 0 min 0,0 UV-I 0 W/m 0,0 km/h (0 Bft)
24.08.2013 22:18 17,1 C 15,6 C 98 % 1010,4 hPa 0,0 l/m 0 min 0 min 0,0 UV-I 0 W/m 0,0 km/h (0 Bft)
24.08.2013 22:20 17,1 C 15,6 C 98 % 1010,4 hPa 0,0 l/m 0 min 0 min 0,0 UV-I 0 W/m 0,0 km/h (0 Bft)
24.08.2013 22:22 17,0 C 15,6 C 98 % 1010,4 hPa 0,0 l/m 0 min 0 min 0,0 UV-I 0 W/m 0,0 km/h (0 Bft)
24.08.2013 22:24 17,0 C 15,6 C 98 % 1010,4 hPa 0,0 l/m 0 min 0 min 0,0 UV-I 0 W/m 0,0 km/h (0 Bft)
24.08.2013 22:26 16,9 C 15,0 C 98 % 1010,4 hPa 0,0 l/m 0 min 0 min 0,0 UV-I 0 W/m 0,0 km/h (0 Bft)
24.08.2013 22:28 16,9 C 15,0 C 98 % 1010,4 hPa 0,0 l/m 0 min 0 min 0,0 UV-I 0 W/m 0,0 km/h (0 Bft)
24.08.2013 22:30 16,9 C 15,0 C 98 % 1010,4 hPa 0,0 l/m 0 min 0 min 0,0 UV-I 0 W/m 0,0 km/h (0 Bft)
24.08.2013 22:32 16,8 C 15,0 C 98 % 1010,4 hPa 0,0 l/m 0 min 0 min 0,0 UV-I 0 W/m 0,0 km/h (0 Bft)
24.08.2013 22:34 16,8 C 15,0 C 98 % 1010,4 hPa 0,0 l/m 0 min 0 min 0,0 UV-I 0 W/m 0,0 km/h (0 Bft)
24.08.2013 22:36 16,8 C 15,0 C 98 % 1010,4 hPa 0,0 l/m 0 min 0 min 0,0 UV-I 0 W/m 0,0 km/h (0 Bft)
24.08.2013 22:38 16,8 C 15,0 C 98 % 1010,4 hPa 0,0 l/m 0 min 0 min 0,0 UV-I 0 W/m 0,0 km/h (0 Bft)
24.08.2013 22:40 16,8 C 15,0 C 98 % 1010,4 hPa 0,0 l/m 0 min 0 min 0,0 UV-I 0 W/m 0,0 km/h (0 Bft)
24.08.2013 22:42 16,8 C 15,0 C 98 % 1010,4 hPa 0,0 l/m 0 min 0 min 0,0 UV-I 0 W/m 0,0 km/h (0 Bft)
24.08.2013 22:44 16,8 C 15,6 C 98 % 1010,4 hPa 0,0 l/m 0 min 0 min 0,0 UV-I 0 W/m 0,0 km/h (0 Bft)
24.08.2013 22:46 16,8 C 15,6 C 98 % 1010,4 hPa 0,0 l/m 0 min 0 min 0,0 UV-I 0 W/m 0,0 km/h (0 Bft)
24.08.2013 22:48 16,9 C 15,6 C 98 % 1010,4 hPa 0,0 l/m 0 min 0 min 0,0 UV-I 0 W/m 0,0 km/h (0 Bft)
24.08.2013 22:50 16,9 C 15,6 C 98 % 1010,4 hPa 0,0 l/m 0 min 0 min 0,0 UV-I 0 W/m 0,0 km/h (0 Bft)
24.08.2013 22:52 16,9 C 15,6 C 98 % 1010,4 hPa 0,0 l/m 0 min 0 min 0,0 UV-I 0 W/m 0,0 km/h (0 Bft)
24.08.2013 22:54 16,9 C 15,6 C 98 % 1010,4 hPa 0,0 l/m 0 min 0 min 0,0 UV-I 0 W/m 0,0 km/h (0 Bft)
24.08.2013 22:56 17,0 C 15,6 C 98 % 1010,4 hPa 0,0 l/m 0 min 0 min 0,0 UV-I 0 W/m 0,0 km/h (0 Bft)
24.08.2013 22:58 17,0 C 15,6 C 98 % 1010,4 hPa 0,0 l/m 0 min 0 min 0,0 UV-I 0 W/m 0,0 km/h (0 Bft)
24.08.2013 23:00 17,0 C 15,6 C 98 % 1010,4 hPa 0,0 l/m 0 min 0 min 0,0 UV-I 0 W/m 0,0 km/h (0 Bft)
24.08.2013 23:02 17,0 C 15,6 C 98 % 1010,4 hPa 0,0 l/m 0 min 0 min 0,0 UV-I 0 W/m 0,0 km/h (0 Bft)
24.08.2013 23:06 17,1 C 16,1 C 98 % 1010,3 hPa 0,0 l/m 0 min 0 min 0,0 UV-I 0 W/m 0,0 km/h (0 Bft)
24.08.2013 23:08 17,1 C 16,1 C 98 % 1010,3 hPa 0,0 l/m 0 min 0 min 0,0 UV-I 0 W/m 0,0 km/h (0 Bft)
24.08.2013 23:10 17,1 C 16,1 C 98 % 1010,3 hPa 0,0 l/m 0 min 0 min 0,0 UV-I 0 W/m 0,0 km/h (0 Bft)
24.08.2013 23:12 17,1 C 16,1 C 98 % 1010,3 hPa 0,0 l/m 0 min 0 min 0,0 UV-I 0 W/m 0,0 km/h (0 Bft)
24.08.2013 23:14 17,2 C 16,1 C 98 % 1010,2 hPa 0,0 l/m 0 min 0 min 0,0 UV-I 0 W/m 0,0 km/h (0 Bft)
24.08.2013 23:16 17,2 C 16,1 C 98 % 1010,2 hPa 0,0 l/m 0 min 0 min 0,0 UV-I 0 W/m 0,0 km/h (0 Bft)
24.08.2013 23:18 17,2 C 16,1 C 98 % 1010,1 hPa 0,0 l/m 0 min 0 min 0,0 UV-I 0 W/m 0,0 km/h (0 Bft)
24.08.2013 23:20 17,2 C 16,1 C 98 % 1010,2 hPa 0,0 l/m 0 min 0 min 0,0 UV-I 0 W/m 0,0 km/h (0 Bft)
24.08.2013 23:22 17,2 C 16,1 C 98 % 1010,1 hPa 0,0 l/m 0 min 0 min 0,0 UV-I 0 W/m 0,0 km/h (0 Bft)
24.08.2013 23:24 17,2 C 16,1 C 98 % 1010,1 hPa 0,0 l/m 0 min 0 min 0,0 UV-I 0 W/m 2,6 km/h (1 Bft)
24.08.2013 23:26 17,2 C 16,1 C 98 % 1010,1 hPa 0,0 l/m 0 min 0 min 0,0 UV-I 0 W/m 0,0 km/h (0 Bft)
24.08.2013 23:28 17,2 C 16,1 C 98 % 1010,2 hPa 0,0 l/m 0 min 0 min 0,0 UV-I 0 W/m 0,0 km/h (0 Bft)
24.08.2013 23:30 17,2 C 16,1 C 98 % 1010,2 hPa 0,0 l/m 0 min 0 min 0,0 UV-I 0 W/m 0,0 km/h (0 Bft)
24.08.2013 23:32 17,2 C 16,1 C 98 % 1010,3 hPa 0,0 l/m 0 min 0 min 0,0 UV-I 0 W/m 0,0 km/h (0 Bft)
24.08.2013 23:34 17,2 C 16,1 C 98 % 1010,2 hPa 0,0 l/m 0 min 0 min 0,0 UV-I 0 W/m 0,0 km/h (0 Bft)
24.08.2013 23:36 17,2 C 16,1 C 98 % 1010,2 hPa 0,0 l/m 0 min 0 min 0,0 UV-I 0 W/m 0,0 km/h (0 Bft)
24.08.2013 23:38 17,2 C 16,1 C 98 % 1010,2 hPa 0,0 l/m 0 min 0 min 0,0 UV-I 0 W/m 0,0 km/h (0 Bft)
24.08.2013 23:40 17,2 C 16,1 C 98 % 1010,2 hPa 0,0 l/m 0 min 0 min 0,0 UV-I 0 W/m 0,0 km/h (0 Bft)
24.08.2013 23:42 17,2 C 16,1 C 98 % 1010,2 hPa 0,0 l/m 0 min 0 min 0,0 UV-I 0 W/m 0,0 km/h (0 Bft)
24.08.2013 23:44 17,2 C 16,1 C 98 % 1010,3 hPa 0,0 l/m 0 min 0 min 0,0 UV-I 0 W/m 0,0 km/h (0 Bft)
24.08.2013 23:46 17,2 C 16,1 C 98 % 1010,3 hPa 0,0 l/m 0 min 0 min 0,0 UV-I 0 W/m 0,0 km/h (0 Bft)
24.08.2013 23:48 17,2 C 16,1 C 98 % 1010,2 hPa 0,0 l/m 0 min 0 min 0,0 UV-I 0 W/m 0,0 km/h (0 Bft)
24.08.2013 23:50 17,2 C 16,1 C 99 % 1010,2 hPa 0,0 l/m 0 min 0 min 0,0 UV-I 0 W/m 0,0 km/h (0 Bft)
24.08.2013 23:52 17,2 C 16,1 C 99 % 1010,1 hPa 0,0 l/m 0 min 0 min 0,0 UV-I 0 W/m 2,6 km/h (1 Bft)
24.08.2013 23:54 17,2 C 16,1 C 99 % 1010,1 hPa 0,0 l/m 0 min 0 min 0,0 UV-I 0 W/m 0,0 km/h (0 Bft)
24.08.2013 23:56 17,2 C 16,1 C 99 % 1010,1 hPa 0,0 l/m 0 min 0 min 0,0 UV-I 0 W/m 0,0 km/h (0 Bft)
24.08.2013 23:58 17,2 C 16,1 C 99 % 1010,1 hPa 0,0 l/m 0 min 2 min 0,0 UV-I 0 W/m 0,0 km/h (0 Bft)
_ Min-Zeit 04:46 04:26 11:28 23:18 - - - - - 00:00
Minimum _ 15,9 C 14,4 C 60 % 1010,1 hPa - - - - - 0,0 km/h (0 Bft)
_ Max-Zeit 11:26 11:26 23:50 00:02 15:14 08:40 14:16 10:52 10:52 10:26
Maximum _ 23,9 C 24,4 C 99 % 1014,4 hPa 0,4 l/m 2 min 2 min 2,2 UV-I 619 W/m 41,2 km/h
S-SO (6 Bft)
Durchschnitt _ 18,8 C 17,5 C 81 % 1011,5 hPa #2,6 l/m #2:10 h #3:11 h 1,4 UV-I 179 W/m 5,3 km/h (1 Bft)
© 2013 W. Hausmann